GEFSCGP_prec_meanprecacc_234.txt.gz
Total_Precipitation_Accumulation
0.00 0.01 0.02 0.02 0.02 0.03 0.06 0.08 0.14 0.17 0.16 0.18 0.34 0.54 0.58 0.76 1.06 1.36 1.70 1.95 2.28 2.61 2.98 3.39 3.48 3.70 4.01 4.62 5.06 5.26 5.24 5.02 4.71 4.30 3.87 3.69 3.60 3.55 3.37 3.19 3.03 2.93 2.86 2.97
0.01 0.03 0.01 0.01 0.02 0.03 0.07 0.11 0.15 0.17 0.15 0.18 0.32 0.53 0.65 1.00 1.32 1.37 1.54 1.69 1.89 2.33 2.65 2.97 3.14 3.22 3.62 4.20 4.63 4.77 4.53 4.38 4.21 3.92 3.80 3.79 3.99 3.68 3.38 3.20 3.02 2.80 2.79 2.91
0.03 0.03 0.02 0.02 0.02 0.03 0.05 0.07 0.12 0.18 0.17 0.24 0.35 0.67 0.89 1.14 1.28 1.31 1.42 1.58 1.69 1.97 2.28 2.58 2.69 2.86 3.07 3.16 3.42 3.58 3.73 3.65 3.53 3.50 3.48 3.51 3.71 3.46 3.22 3.04 2.94 2.64 2.52 2.51
0.03 0.03 0.03 0.04 0.05 0.05 0.06 0.07 0.07 0.09 0.17 0.31 0.45 0.98 1.23 1.21 1.26 1.40 1.40 1.39 1.64 1.93 1.92 2.02 2.24 2.41 2.65 2.78 2.97 3.02 3.05 3.17 3.20 3.28 3.18 3.01 2.90 2.78 2.68 2.70 2.68 2.65 2.53 2.43
0.05 0.04 0.03 0.05 0.05 0.04 0.05 0.05 0.06 0.10 0.20 0.33 0.45 0.77 1.16 1.51 1.58 1.40 1.34 1.24 1.44 1.58 1.48 1.46 1.63 1.77 1.99 2.18 2.41 2.57 2.68 2.77 2.89 2.96 2.87 2.83 2.61 2.59 2.61 2.59 2.63 2.57 2.49 2.47
0.05 0.05 0.04 0.04 0.04 0.04 0.04 0.07 0.13 0.25 0.43 0.67 0.57 0.70 1.09 1.46 1.72 1.46 1.26 1.18 1.28 1.25 1.22 1.34 1.45 1.54 1.67 1.91 2.09 2.23 2.37 2.43 2.55 2.61 2.64 2.60 2.54 2.54 2.51 2.47 2.45 2.42 2.42 2.34
0.12 0.12 0.10 0.06 0.06 0.06 0.06 0.13 0.46 0.82 1.11 1.13 0.73 0.78 1.14 1.15 1.18 1.19 1.15 1.19 1.20 1.13 1.05 1.07 1.17 1.32 1.48 1.67 1.78 1.86 1.99 2.08 2.10 2.15 2.21 2.21 2.29 2.40 2.26 2.15 2.17 2.16 2.01 1.92
0.17 0.24 0.15 0.09 0.09 0.09 0.11 0.15 0.50 0.77 0.83 0.94 0.82 1.09 1.42 1.14 1.06 0.99 1.06 1.16 1.14 1.00 0.91 0.95 1.06 1.12 1.19 1.35 1.54 1.59 1.70 1.81 1.94 1.98 1.97 1.99 2.00 2.03 1.92 1.96 1.93 1.90 1.69 1.60
0.10 0.11 0.08 0.08 0.09 0.11 0.15 0.18 0.23 0.44 0.49 0.71 0.91 1.21 1.38 1.08 1.05 1.16 1.28 1.25 1.16 0.94 0.78 0.79 0.82 0.87 0.88 0.98 1.11 1.24 1.51 1.65 1.74 1.81 1.81 1.75 1.72 1.76 1.76 1.80 1.90 1.83 1.78 1.64
0.06 0.05 0.06 0.07 0.09 0.12 0.15 0.16 0.19 0.36 0.54 0.75 0.89 1.26 1.55 1.50 1.34 1.28 1.35 1.19 0.91 0.76 0.64 0.60 0.61 0.63 0.70 0.78 0.86 1.01 1.23 1.34 1.44 1.59 1.65 1.52 1.67 1.78 1.79 1.77 1.66 1.65 1.67 1.67
0.05 0.04 0.06 0.09 0.12 0.14 0.19 0.21 0.29 0.40 0.44 0.65 1.01 1.23 1.18 1.23 1.16 1.21 1.19 1.01 0.75 0.63 0.57 0.57 0.57 0.60 0.67 0.72 0.82 0.98 1.22 1.37 1.36 1.46 1.55 1.56 1.66 1.78 1.80 1.71 1.60 1.58 1.58 1.63
0.07 0.06 0.10 0.16 0.18 0.17 0.17 0.19 0.28 0.42 0.42 0.46 0.70 0.92 0.67 0.72 0.74 0.81 0.85 0.74 0.63 0.61 0.58 0.64 0.67 0.68 0.69 0.77 0.87 1.01 1.16 1.34 1.40 1.51 1.67 1.81 1.77 1.71 1.71 1.69 1.60 1.52 1.45 1.52
0.11 0.12 0.17 0.38 0.48 0.30 0.19 0.17 0.19 0.24 0.27 0.30 0.52 0.72 0.51 0.58 0.69 0.81 0.89 0.90 0.85 0.76 0.60 0.60 0.70 0.77 0.75 0.85 1.01 1.13 1.26 1.37 1.47 1.60 1.83 1.98 1.85 1.74 1.76 1.72 1.56 1.43 1.35 1.39
0.12 0.15 0.19 0.41 0.52 0.40 0.30 0.23 0.19 0.22 0.31 0.28 0.31 0.49 0.51 0.58 0.71 0.81 0.88 0.90 0.81 0.71 0.63 0.63 0.67 0.74 0.89 0.98 1.12 1.25 1.20 1.31 1.43 1.46 1.64 1.81 1.76 1.63 1.55 1.55 1.52 1.50 1.45 1.39
0.10 0.12 0.13 0.16 0.23 0.30 0.32 0.27 0.21 0.18 0.21 0.34 0.33 0.38 0.48 0.59 0.64 0.79 0.85 0.78 0.73 0.69 0.67 0.68 0.75 0.79 0.84 0.89 0.90 0.98 0.94 1.10 1.11 1.17 1.27 1.38 1.35 1.35 1.34 1.29 1.26 1.32 1.40 1.34
0.19 0.18 0.17 0.15 0.18 0.22 0.26 0.26 0.18 0.14 0.12 0.15 0.28 0.49 0.53 0.56 0.61 0.73 0.76 0.74 0.72 0.79 0.84 0.85 0.86 0.92 0.85 0.79 0.74 0.69 0.74 0.87 0.96 1.07 1.05 1.14 1.24 1.17 1.13 1.14 1.12 1.15 1.24 1.33
0.37 0.33 0.30 0.25 0.21 0.27 0.32 0.26 0.19 0.14 0.13 0.14 0.32 0.59 0.60 0.61 0.64 0.75 0.82 0.83 0.74 0.74 0.77 0.84 0.85 0.85 0.72 0.66 0.65 0.66 0.70 0.76 0.79 0.88 1.02 1.13 1.22 1.17 1.10 1.15 1.25 1.24 1.35 1.41
0.45 0.49 0.42 0.37 0.44 0.58 0.39 0.25 0.21 0.22 0.21 0.22 0.28 0.38 0.46 0.61 0.62 0.60 0.67 0.79 0.82 0.84 0.87 0.85 0.80 0.75 0.71 0.68 0.69 0.70 0.69 0.71 0.76 0.78 0.87 0.99 1.09 1.08 1.07 1.07 1.14 1.25 1.41 1.49
0.35 0.51 0.52 0.49 0.59 0.51 0.43 0.37 0.34 0.38 0.38 0.35 0.44 0.42 0.48 0.54 0.58 0.67 0.58 0.62 0.66 0.82 0.85 0.85 0.81 0.86 0.87 0.83 0.87 0.90 0.85 0.84 0.90 0.96 1.01 0.98 1.06 1.14 1.18 1.20 1.24 1.34 1.44 1.49
0.44 0.57 0.70 0.65 0.79 0.79 0.67 0.56 0.49 0.51 0.83 0.64 0.60 0.60 0.68 0.71 0.81 0.94 0.71 0.62 0.70 0.81 0.81 0.86 0.78 0.75 0.85 0.88 1.04 1.11 1.10 1.08 1.13 1.22 1.32 1.31 1.36 1.41 1.40 1.50 1.62 1.68 1.70 1.64
0.92 0.92 0.84 0.84 0.96 0.98 0.77 0.65 0.60 0.99 1.19 0.79 0.72 0.77 0.75 0.78 0.89 0.89 0.82 0.80 0.85 0.73 0.71 0.76 0.85 0.82 0.85 0.96 1.13 1.31 1.34 1.28 1.34 1.42 1.52 1.63 1.73 1.87 1.98 2.08 2.03 1.99 2.01 2.01
1.08 1.17 1.16 1.18 1.35 1.28 0.82 0.77 1.09 1.29 0.98 1.01 0.91 0.84 0.82 0.77 0.84 0.90 0.89 0.84 0.73 0.71 0.72 0.77 0.89 0.88 0.91 1.04 1.20 1.35 1.41 1.45 1.58 1.66 1.82 1.95 2.14 2.22 2.31 2.61 2.62 2.65 2.61 2.34
1.20 1.25 1.23 1.29 1.39 1.14 0.99 1.15 1.22 1.18 1.14 1.19 1.23 1.05 0.94 0.85 0.87 0.91 0.82 0.72 0.66 0.68 0.70 0.76 0.91 1.01 1.03 1.10 1.30 1.53 1.56 1.62 1.74 1.87 2.07 2.21 2.30 2.44 2.58 2.71 2.68 2.67 2.60 2.35
1.31 1.11 1.23 1.38 1.50 1.30 1.22 1.21 1.25 1.24 1.18 1.18 1.25 1.37 1.35 1.10 0.94 0.96 0.93 0.83 0.80 0.85 0.82 0.83 0.93 1.08 1.26 1.34 1.46 1.70 1.73 1.82 1.92 2.00 2.11 2.21 2.31 2.42 2.59 2.74 2.65 2.55 2.43 2.32
1.29 1.31 1.49 1.72 1.69 1.57 1.45 1.48 1.57 1.47 1.35 1.37 1.37 1.42 1.46 1.17 0.94 0.90 0.97 0.94 0.92 1.01 1.04 1.02 1.05 1.17 1.37 1.54 1.66 1.72 1.77 1.91 2.05 2.06 2.13 2.23 2.26 2.28 2.39 2.46 2.54 2.43 2.34 2.28
1.33 1.46 1.70 1.89 1.71 1.83 1.70 1.43 1.53 1.66 1.52 1.53 1.48 1.39 1.23 1.11 1.05 1.04 1.02 1.00 0.99 1.09 1.12 1.13 1.14 1.21 1.37 1.53 1.73 1.84 1.93 2.05 2.17 2.18 2.07 2.10 2.16 2.21 2.24 2.22 2.09 2.02 1.95 1.88

GEFSCGP_prec_meanprecacc_240.txt.gz
Total_Precipitation_Accumulation
0.00 0.01 0.02 0.02 0.02 0.03 0.06 0.08 0.14 0.17 0.16 0.18 0.34 0.54 0.58 0.76 1.06 1.37 1.71 1.95 2.29 2.61 2.98 3.39 3.48 3.71 4.03 4.63 5.08 5.28 5.27 5.05 4.75 4.33 3.92 3.75 3.66 3.61 3.44 3.30 3.16 3.06 2.99 3.07
0.01 0.03 0.01 0.01 0.02 0.03 0.07 0.11 0.15 0.17 0.15 0.18 0.32 0.53 0.65 1.01 1.32 1.37 1.54 1.70 1.90 2.33 2.66 2.97 3.14 3.23 3.64 4.22 4.64 4.79 4.54 4.40 4.22 3.94 3.83 3.83 4.02 3.71 3.44 3.28 3.12 2.90 2.89 3.00
0.03 0.03 0.02 0.02 0.02 0.03 0.05 0.07 0.12 0.18 0.17 0.24 0.35 0.67 0.89 1.14 1.28 1.32 1.42 1.58 1.69 1.97 2.29 2.60 2.71 2.87 3.07 3.17 3.43 3.59 3.74 3.66 3.54 3.52 3.49 3.53 3.73 3.48 3.26 3.10 3.02 2.71 2.58 2.59
0.03 0.03 0.03 0.04 0.05 0.05 0.06 0.07 0.07 0.09 0.17 0.31 0.45 0.98 1.23 1.21 1.26 1.40 1.40 1.39 1.64 1.93 1.92 2.03 2.24 2.42 2.66 2.78 2.97 3.03 3.06 3.18 3.22 3.30 3.19 3.02 2.91 2.80 2.71 2.76 2.73 2.70 2.57 2.48
0.05 0.04 0.03 0.05 0.06 0.04 0.05 0.05 0.06 0.10 0.20 0.33 0.45 0.77 1.16 1.51 1.58 1.40 1.34 1.24 1.44 1.58 1.48 1.46 1.64 1.78 2.00 2.18 2.42 2.57 2.69 2.78 2.91 2.97 2.88 2.84 2.62 2.60 2.63 2.62 2.66 2.61 2.55 2.53
0.05 0.05 0.04 0.04 0.04 0.04 0.04 0.07 0.13 0.25 0.43 0.67 0.57 0.70 1.09 1.46 1.72 1.46 1.26 1.18 1.28 1.25 1.22 1.34 1.45 1.54 1.68 1.92 2.10 2.24 2.38 2.44 2.56 2.61 2.64 2.60 2.55 2.55 2.53 2.50 2.49 2.47 2.47 2.38
0.12 0.12 0.10 0.06 0.06 0.06 0.06 0.13 0.46 0.82 1.11 1.13 0.73 0.78 1.14 1.15 1.18 1.19 1.15 1.19 1.20 1.13 1.06 1.07 1.17 1.32 1.49 1.69 1.80 1.87 2.00 2.08 2.10 2.16 2.21 2.22 2.30 2.41 2.28 2.18 2.20 2.19 2.06 1.96
0.17 0.24 0.15 0.09 0.09 0.09 0.11 0.15 0.50 0.77 0.83 0.94 0.82 1.09 1.42 1.14 1.06 0.99 1.06 1.16 1.14 1.00 0.91 0.95 1.07 1.13 1.20 1.37 1.55 1.59 1.70 1.81 1.95 1.99 1.97 1.99 2.01 2.03 1.93 1.97 1.95 1.92 1.72 1.64
0.10 0.11 0.08 0.08 0.09 0.11 0.15 0.18 0.23 0.44 0.49 0.71 0.91 1.21 1.38 1.08 1.05 1.16 1.28 1.25 1.16 0.94 0.78 0.79 0.82 0.87 0.89 0.99 1.12 1.25 1.51 1.66 1.74 1.81 1.82 1.76 1.72 1.76 1.77 1.81 1.92 1.84 1.80 1.67
0.06 0.05 0.06 0.07 0.09 0.12 0.15 0.16 0.19 0.36 0.54 0.75 0.89 1.26 1.55 1.50 1.34 1.28 1.35 1.19 0.91 0.76 0.65 0.60 0.62 0.63 0.70 0.78 0.87 1.01 1.24 1.35 1.44 1.59 1.65 1.52 1.67 1.79 1.81 1.79 1.68 1.66 1.68 1.69
0.05 0.04 0.06 0.09 0.12 0.14 0.19 0.21 0.29 0.40 0.44 0.65 1.01 1.23 1.18 1.23 1.16 1.21 1.19 1.01 0.75 0.63 0.57 0.57 0.57 0.61 0.67 0.72 0.83 0.99 1.23 1.37 1.36 1.46 1.55 1.57 1.67 1.78 1.80 1.72 1.61 1.60 1.60 1.65
0.07 0.06 0.10 0.16 0.18 0.17 0.17 0.19 0.28 0.42 0.42 0.46 0.70 0.92 0.67 0.72 0.74 0.81 0.85 0.74 0.64 0.61 0.58 0.64 0.67 0.68 0.69 0.78 0.88 1.01 1.16 1.34 1.40 1.51 1.68 1.82 1.77 1.71 1.72 1.70 1.61 1.53 1.47 1.54
0.11 0.12 0.17 0.38 0.48 0.30 0.19 0.17 0.19 0.24 0.27 0.30 0.52 0.72 0.51 0.58 0.69 0.81 0.89 0.90 0.85 0.76 0.60 0.60 0.70 0.78 0.75 0.85 1.01 1.13 1.26 1.37 1.47 1.61 1.83 1.98 1.85 1.74 1.77 1.73 1.57 1.45 1.37 1.41
0.12 0.15 0.19 0.41 0.52 0.40 0.30 0.23 0.19 0.22 0.31 0.28 0.31 0.49 0.51 0.58 0.71 0.81 0.88 0.90 0.81 0.71 0.63 0.63 0.68 0.74 0.89 0.98 1.12 1.25 1.20 1.31 1.44 1.47 1.65 1.81 1.77 1.64 1.56 1.56 1.53 1.52 1.48 1.42
0.10 0.12 0.13 0.16 0.23 0.30 0.32 0.27 0.21 0.18 0.21 0.34 0.33 0.38 0.48 0.59 0.64 0.79 0.85 0.78 0.74 0.69 0.67 0.68 0.75 0.79 0.85 0.89 0.91 0.98 0.94 1.10 1.11 1.18 1.28 1.39 1.36 1.36 1.35 1.30 1.27 1.32 1.41 1.35
0.19 0.18 0.17 0.15 0.18 0.22 0.26 0.26 0.18 0.14 0.12 0.15 0.28 0.49 0.53 0.56 0.61 0.73 0.76 0.74 0.72 0.79 0.84 0.85 0.86 0.93 0.86 0.80 0.75 0.69 0.74 0.88 0.97 1.08 1.06 1.14 1.24 1.17 1.14 1.15 1.13 1.17 1.26 1.35
0.37 0.33 0.30 0.25 0.21 0.27 0.32 0.26 0.19 0.14 0.13 0.14 0.32 0.59 0.60 0.61 0.64 0.75 0.82 0.83 0.74 0.74 0.77 0.84 0.86 0.86 0.73 0.68 0.67 0.68 0.72 0.78 0.81 0.90 1.03 1.14 1.23 1.18 1.11 1.16 1.26 1.26 1.38 1.43
0.45 0.49 0.42 0.37 0.44 0.58 0.39 0.25 0.21 0.22 0.21 0.22 0.28 0.38 0.46 0.61 0.62 0.60 0.67 0.79 0.82 0.84 0.87 0.85 0.81 0.77 0.75 0.72 0.72 0.73 0.74 0.80 0.86 0.86 0.90 1.01 1.10 1.09 1.08 1.08 1.16 1.27 1.44 1.52
0.35 0.51 0.53 0.50 0.59 0.51 0.43 0.37 0.34 0.38 0.39 0.35 0.44 0.42 0.48 0.54 0.58 0.67 0.58 0.62 0.66 0.82 0.85 0.85 0.81 0.86 0.89 0.87 0.92 0.94 0.88 0.89 0.97 1.04 1.05 1.00 1.08 1.16 1.20 1.22 1.25 1.36 1.46 1.50
0.45 0.57 0.70 0.65 0.79 0.79 0.67 0.56 0.49 0.51 0.84 0.64 0.60 0.60 0.68 0.71 0.81 0.94 0.71 0.62 0.71 0.82 0.82 0.87 0.78 0.76 0.87 0.92 1.08 1.14 1.12 1.10 1.15 1.25 1.35 1.35 1.39 1.44 1.42 1.53 1.65 1.70 1.72 1.66
0.92 0.92 0.84 0.84 0.96 0.98 0.77 0.65 0.61 1.00 1.19 0.79 0.72 0.77 0.75 0.78 0.89 0.90 0.82 0.81 0.85 0.73 0.71 0.77 0.85 0.83 0.87 1.01 1.18 1.34 1.36 1.30 1.37 1.45 1.55 1.66 1.77 1.90 2.01 2.11 2.06 2.02 2.03 2.04
1.08 1.18 1.16 1.19 1.35 1.28 0.82 0.78 1.09 1.30 0.98 1.01 0.91 0.84 0.82 0.77 0.85 0.91 0.89 0.85 0.74 0.72 0.72 0.77 0.90 0.90 0.93 1.08 1.25 1.39 1.43 1.47 1.59 1.69 1.85 1.98 2.16 2.25 2.33 2.63 2.64 2.67 2.63 2.36
1.21 1.25 1.25 1.30 1.40 1.14 0.99 1.15 1.23 1.18 1.14 1.19 1.23 1.05 0.95 0.85 0.87 0.92 0.83 0.73 0.66 0.68 0.71 0.76 0.92 1.03 1.05 1.13 1.35 1.58 1.63 1.66 1.77 1.88 2.08 2.23 2.32 2.46 2.60 2.73 2.69 2.68 2.61 2.36
1.32 1.12 1.25 1.40 1.51 1.31 1.22 1.22 1.26 1.24 1.18 1.18 1.26 1.38 1.36 1.10 0.95 0.97 0.93 0.84 0.81 0.86 0.83 0.84 0.94 1.10 1.28 1.37 1.51 1.75 1.81 1.94 2.00 2.04 2.14 2.24 2.33 2.44 2.60 2.75 2.66 2.56 2.43 2.32
1.29 1.32 1.51 1.74 1.71 1.58 1.46 1.49 1.58 1.48 1.36 1.37 1.37 1.42 1.47 1.18 0.96 0.92 0.99 0.96 0.94 1.03 1.06 1.03 1.07 1.18 1.39 1.57 1.71 1.77 1.81 2.00 2.18 2.16 2.17 2.26 2.28 2.30 2.41 2.48 2.55 2.43 2.34 2.29
1.33 1.47 1.72 1.91 1.72 1.84 1.72 1.44 1.54 1.67 1.53 1.53 1.48 1.40 1.24 1.13 1.08 1.08 1.07 1.04 1.04 1.15 1.17 1.17 1.18 1.24 1.40 1.57 1.77 1.87 1.97 2.09 2.22 2.23 2.11 2.13 2.19 2.24 2.26 2.24 2.11 2.03 1.96 1.88

GEFSCGP_prec_meanprecacc_246.txt.gz
Total_Precipitation_Accumulation
0.00 0.01 0.02 0.02 0.02 0.04 0.06 0.09 0.15 0.18 0.16 0.18 0.34 0.54 0.58 0.76 1.06 1.37 1.72 1.96 2.29 2.62 2.98 3.39 3.48 3.71 4.03 4.64 5.09 5.31 5.31 5.11 4.81 4.43 4.04 3.87 3.78 3.73 3.56 3.43 3.30 3.16 3.07 3.15
0.01 0.03 0.01 0.01 0.02 0.04 0.07 0.11 0.15 0.17 0.15 0.18 0.32 0.53 0.65 1.01 1.33 1.39 1.56 1.70 1.90 2.33 2.66 2.98 3.15 3.23 3.64 4.23 4.66 4.80 4.57 4.44 4.27 4.02 3.92 3.91 4.11 3.80 3.53 3.42 3.28 3.00 2.98 3.08
0.03 0.03 0.02 0.02 0.02 0.03 0.05 0.07 0.12 0.18 0.17 0.24 0.35 0.68 0.89 1.14 1.28 1.32 1.42 1.58 1.69 1.97 2.29 2.60 2.71 2.87 3.08 3.18 3.43 3.60 3.77 3.69 3.58 3.56 3.54 3.59 3.80 3.56 3.37 3.25 3.17 2.82 2.68 2.69
0.03 0.03 0.03 0.04 0.05 0.05 0.06 0.07 0.07 0.09 0.17 0.31 0.45 0.99 1.24 1.21 1.26 1.40 1.40 1.39 1.64 1.93 1.93 2.04 2.25 2.42 2.67 2.79 2.98 3.04 3.08 3.20 3.23 3.31 3.22 3.06 2.96 2.87 2.82 2.88 2.84 2.80 2.68 2.59
0.05 0.04 0.03 0.05 0.06 0.04 0.05 0.05 0.06 0.10 0.20 0.33 0.45 0.77 1.17 1.51 1.58 1.40 1.34 1.24 1.44 1.58 1.49 1.48 1.64 1.78 2.00 2.19 2.42 2.58 2.70 2.80 2.92 2.98 2.90 2.86 2.64 2.63 2.68 2.69 2.74 2.70 2.67 2.65
0.05 0.05 0.04 0.04 0.04 0.04 0.04 0.07 0.13 0.25 0.43 0.67 0.57 0.71 1.12 1.48 1.72 1.46 1.26 1.18 1.28 1.26 1.23 1.34 1.45 1.55 1.68 1.92 2.10 2.25 2.40 2.46 2.57 2.62 2.65 2.62 2.57 2.57 2.57 2.54 2.54 2.53 2.55 2.46
0.12 0.12 0.10 0.06 0.06 0.06 0.06 0.13 0.46 0.83 1.11 1.14 0.73 0.79 1.15 1.15 1.18 1.20 1.15 1.19 1.20 1.13 1.06 1.07 1.18 1.32 1.49 1.69 1.81 1.87 2.01 2.10 2.11 2.16 2.22 2.23 2.31 2.43 2.30 2.21 2.23 2.24 2.09 1.99
0.17 0.24 0.15 0.09 0.09 0.09 0.11 0.15 0.51 0.79 0.85 0.94 0.82 1.09 1.42 1.14 1.06 0.99 1.06 1.16 1.14 1.00 0.91 0.95 1.07 1.13 1.20 1.37 1.55 1.59 1.70 1.81 1.96 1.99 1.98 2.01 2.03 2.05 1.95 2.00 1.98 1.95 1.73 1.66
0.10 0.11 0.08 0.08 0.09 0.11 0.15 0.18 0.23 0.45 0.51 0.71 0.92 1.21 1.38 1.08 1.05 1.16 1.28 1.25 1.18 0.95 0.78 0.79 0.82 0.87 0.89 0.99 1.12 1.25 1.51 1.66 1.75 1.82 1.83 1.77 1.74 1.78 1.79 1.84 1.94 1.86 1.82 1.69
0.06 0.05 0.06 0.07 0.09 0.12 0.15 0.16 0.19 0.36 0.54 0.75 0.89 1.26 1.56 1.51 1.34 1.28 1.35 1.19 0.91 0.77 0.65 0.60 0.62 0.63 0.70 0.79 0.87 1.01 1.24 1.35 1.44 1.60 1.66 1.53 1.69 1.80 1.82 1.80 1.70 1.68 1.71 1.72
0.05 0.04 0.06 0.09 0.12 0.14 0.19 0.21 0.29 0.40 0.44 0.65 1.02 1.23 1.18 1.23 1.16 1.21 1.19 1.02 0.76 0.63 0.57 0.57 0.58 0.61 0.67 0.72 0.83 1.00 1.23 1.37 1.37 1.46 1.55 1.57 1.67 1.79 1.81 1.73 1.63 1.62 1.63 1.68
0.07 0.06 0.10 0.16 0.18 0.17 0.17 0.19 0.28 0.42 0.42 0.46 0.70 0.92 0.67 0.72 0.75 0.81 0.85 0.74 0.64 0.61 0.59 0.64 0.68 0.69 0.69 0.78 0.88 1.01 1.16 1.34 1.40 1.51 1.68 1.82 1.77 1.72 1.72 1.71 1.62 1.54 1.48 1.55
0.11 0.12 0.17 0.38 0.48 0.30 0.19 0.17 0.19 0.24 0.27 0.30 0.53 0.73 0.51 0.58 0.69 0.81 0.89 0.90 0.85 0.76 0.61 0.62 0.70 0.78 0.75 0.85 1.01 1.13 1.26 1.37 1.47 1.61 1.83 1.98 1.86 1.75 1.77 1.73 1.58 1.46 1.38 1.42
0.12 0.15 0.19 0.41 0.52 0.40 0.30 0.23 0.19 0.22 0.31 0.28 0.31 0.49 0.51 0.58 0.71 0.81 0.88 0.90 0.81 0.72 0.65 0.65 0.68 0.74 0.89 0.98 1.12 1.25 1.20 1.31 1.44 1.47 1.65 1.82 1.78 1.64 1.57 1.57 1.54 1.53 1.49 1.43
0.10 0.12 0.13 0.16 0.23 0.30 0.32 0.27 0.21 0.18 0.21 0.34 0.33 0.38 0.48 0.59 0.64 0.80 0.87 0.79 0.74 0.69 0.67 0.69 0.75 0.80 0.85 0.89 0.91 0.98 0.94 1.10 1.11 1.18 1.28 1.39 1.36 1.37 1.35 1.30 1.28 1.33 1.41 1.36
0.19 0.18 0.17 0.15 0.18 0.22 0.26 0.26 0.18 0.14 0.12 0.15 0.28 0.49 0.53 0.56 0.62 0.75 0.77 0.74 0.73 0.79 0.84 0.85 0.86 0.93 0.86 0.80 0.75 0.70 0.74 0.88 0.97 1.08 1.06 1.14 1.25 1.18 1.14 1.16 1.14 1.18 1.27 1.36
0.37 0.33 0.30 0.25 0.21 0.27 0.32 0.26 0.19 0.14 0.13 0.14 0.32 0.59 0.60 0.61 0.64 0.75 0.83 0.84 0.75 0.74 0.77 0.84 0.86 0.86 0.74 0.69 0.68 0.69 0.72 0.78 0.81 0.90 1.04 1.15 1.23 1.19 1.12 1.17 1.28 1.28 1.41 1.46
0.45 0.49 0.42 0.37 0.44 0.58 0.39 0.25 0.21 0.22 0.21 0.22 0.28 0.38 0.46 0.61 0.63 0.61 0.68 0.80 0.82 0.84 0.87 0.85 0.81 0.77 0.76 0.73 0.73 0.74 0.74 0.80 0.87 0.88 0.95 1.05 1.12 1.11 1.10 1.10 1.18 1.29 1.46 1.55
0.35 0.52 0.53 0.50 0.59 0.51 0.43 0.37 0.34 0.38 0.39 0.35 0.44 0.42 0.48 0.54 0.59 0.72 0.61 0.64 0.66 0.83 0.85 0.85 0.82 0.87 0.90 0.87 0.93 0.94 0.88 0.90 0.98 1.08 1.13 1.07 1.13 1.19 1.23 1.24 1.28 1.38 1.48 1.53
0.45 0.58 0.71 0.66 0.79 0.80 0.67 0.56 0.49 0.51 0.84 0.64 0.60 0.60 0.68 0.71 0.82 0.97 0.75 0.68 0.74 0.83 0.82 0.87 0.79 0.76 0.87 0.93 1.09 1.15 1.13 1.11 1.17 1.27 1.37 1.38 1.45 1.51 1.46 1.56 1.68 1.73 1.75 1.70
0.93 0.93 0.85 0.85 0.97 0.98 0.77 0.65 0.61 1.01 1.21 0.79 0.72 0.77 0.75 0.79 0.90 0.91 0.84 0.85 0.87 0.73 0.71 0.77 0.86 0.83 0.88 1.01 1.18 1.35 1.37 1.31 1.38 1.46 1.58 1.69 1.80 1.95 2.09 2.19 2.12 2.06 2.07 2.08
1.09 1.19 1.17 1.19 1.36 1.29 0.83 0.78 1.10 1.31 0.98 1.01 0.91 0.84 0.82 0.77 0.85 0.91 0.90 0.85 0.74 0.72 0.73 0.77 0.91 0.90 0.93 1.09 1.25 1.40 1.44 1.47 1.61 1.72 1.88 2.01 2.19 2.27 2.38 2.74 2.75 2.74 2.68 2.40
1.22 1.27 1.26 1.31 1.42 1.16 1.00 1.16 1.24 1.19 1.15 1.19 1.23 1.05 0.95 0.87 0.89 0.92 0.83 0.74 0.67 0.69 0.71 0.77 0.93 1.04 1.06 1.14 1.36 1.59 1.64 1.68 1.80 1.92 2.12 2.27 2.35 2.49 2.63 2.76 2.74 2.73 2.67 2.41
1.35 1.13 1.26 1.41 1.52 1.31 1.22 1.23 1.27 1.25 1.19 1.18 1.26 1.38 1.36 1.11 0.96 0.97 0.94 0.84 0.81 0.87 0.84 0.85 0.96 1.11 1.29 1.39 1.55 1.79 1.83 1.97 2.04 2.08 2.18 2.27 2.36 2.47 2.63 2.78 2.70 2.59 2.49 2.40
1.32 1.35 1.53 1.77 1.74 1.60 1.47 1.50 1.60 1.48 1.36 1.37 1.37 1.42 1.47 1.18 0.97 0.92 0.99 0.96 0.95 1.04 1.07 1.05 1.09 1.21 1.41 1.58 1.74 1.81 1.85 2.04 2.22 2.22 2.23 2.30 2.32 2.34 2.45 2.52 2.60 2.48 2.38 2.33
1.36 1.50 1.76 1.97 1.78 1.88 1.73 1.44 1.54 1.68 1.53 1.54 1.48 1.40 1.24 1.14 1.08 1.09 1.08 1.05 1.05 1.16 1.20 1.21 1.21 1.27 1.44 1.60 1.80 1.91 2.02 2.15 2.26 2.28 2.19 2.22 2.27 2.30 2.30 2.28 2.16 2.09 2.03 1.94

GEFSCGP_prec_meanprecacc_252.txt.gz
Total_Precipitation_Accumulation
0.00 0.01 0.02 0.03 0.03 0.04 0.08 0.10 0.15 0.19 0.16 0.20 0.36 0.54 0.59 0.77 1.06 1.38 1.73 1.97 2.30 2.62 2.99 3.41 3.49 3.72 4.04 4.65 5.12 5.35 5.35 5.15 4.85 4.46 4.07 3.90 3.82 3.79 3.65 3.50 3.34 3.20 3.12 3.19
0.01 0.03 0.02 0.02 0.02 0.04 0.07 0.11 0.16 0.18 0.16 0.19 0.37 0.56 0.67 1.01 1.33 1.39 1.57 1.71 1.90 2.33 2.67 2.98 3.15 3.23 3.64 4.23 4.67 4.83 4.59 4.46 4.30 4.05 3.95 3.94 4.15 3.87 3.63 3.51 3.36 3.08 3.04 3.14
0.03 0.04 0.02 0.02 0.02 0.03 0.05 0.07 0.12 0.18 0.18 0.25 0.39 0.73 0.94 1.16 1.29 1.32 1.42 1.58 1.69 1.98 2.29 2.60 2.71 2.87 3.08 3.18 3.44 3.62 3.78 3.72 3.60 3.59 3.57 3.61 3.83 3.62 3.45 3.37 3.29 2.92 2.77 2.75
0.03 0.03 0.03 0.04 0.05 0.05 0.07 0.07 0.07 0.10 0.18 0.31 0.46 1.01 1.27 1.23 1.27 1.40 1.40 1.39 1.64 1.94 1.93 2.04 2.25 2.42 2.67 2.79 2.98 3.04 3.08 3.22 3.26 3.34 3.24 3.09 2.99 2.92 2.88 2.99 2.96 2.90 2.76 2.65
0.05 0.04 0.03 0.05 0.06 0.04 0.05 0.05 0.07 0.11 0.21 0.33 0.46 0.78 1.20 1.53 1.60 1.41 1.35 1.24 1.44 1.58 1.49 1.48 1.65 1.79 2.00 2.19 2.42 2.58 2.70 2.81 2.93 3.00 2.93 2.90 2.69 2.69 2.75 2.80 2.82 2.78 2.73 2.70
0.05 0.05 0.04 0.04 0.04 0.04 0.04 0.07 0.13 0.25 0.43 0.67 0.57 0.71 1.14 1.48 1.73 1.48 1.27 1.19 1.29 1.26 1.23 1.34 1.46 1.55 1.68 1.93 2.11 2.25 2.40 2.46 2.58 2.63 2.68 2.65 2.60 2.62 2.62 2.63 2.62 2.60 2.60 2.51
0.12 0.12 0.10 0.06 0.06 0.06 0.06 0.13 0.47 0.84 1.12 1.14 0.73 0.79 1.15 1.16 1.19 1.21 1.16 1.21 1.21 1.14 1.07 1.08 1.18 1.33 1.50 1.70 1.81 1.87 2.01 2.10 2.11 2.17 2.23 2.24 2.33 2.45 2.33 2.28 2.27 2.27 2.14 2.03
0.17 0.24 0.15 0.09 0.09 0.09 0.11 0.15 0.51 0.79 0.85 0.95 0.82 1.11 1.44 1.15 1.06 1.00 1.08 1.18 1.17 1.03 0.96 0.99 1.08 1.14 1.21 1.38 1.56 1.60 1.71 1.82 1.96 2.00 1.99 2.01 2.03 2.06 1.97 2.03 2.02 1.97 1.75 1.68
0.10 0.11 0.08 0.08 0.09 0.11 0.15 0.18 0.23 0.45 0.51 0.72 0.93 1.22 1.39 1.09 1.05 1.17 1.29 1.28 1.23 0.97 0.82 0.84 0.85 0.89 0.90 1.00 1.13 1.25 1.52 1.66 1.75 1.82 1.84 1.78 1.74 1.79 1.81 1.86 1.96 1.87 1.83 1.70
0.06 0.05 0.06 0.07 0.09 0.12 0.15 0.16 0.19 0.37 0.56 0.77 0.91 1.27 1.57 1.52 1.36 1.29 1.37 1.22 0.95 0.78 0.68 0.63 0.63 0.64 0.72 0.80 0.88 1.02 1.24 1.35 1.44 1.60 1.66 1.54 1.69 1.80 1.83 1.81 1.70 1.69 1.72 1.73
0.05 0.04 0.06 0.09 0.12 0.14 0.19 0.21 0.29 0.40 0.44 0.66 1.03 1.24 1.19 1.24 1.17 1.22 1.21 1.04 0.80 0.65 0.59 0.60 0.59 0.62 0.69 0.74 0.84 1.01 1.23 1.38 1.37 1.46 1.55 1.57 1.67 1.79 1.82 1.73 1.63 1.62 1.63 1.68
0.07 0.06 0.10 0.16 0.18 0.17 0.17 0.19 0.28 0.42 0.42 0.46 0.71 0.93 0.67 0.73 0.75 0.82 0.88 0.77 0.69 0.66 0.61 0.67 0.72 0.72 0.73 0.81 0.91 1.04 1.18 1.34 1.40 1.51 1.68 1.82 1.78 1.72 1.73 1.72 1.62 1.55 1.49 1.56
0.11 0.12 0.17 0.38 0.48 0.30 0.19 0.17 0.19 0.24 0.27 0.30 0.53 0.73 0.52 0.59 0.70 0.83 0.92 0.93 0.88 0.79 0.64 0.67 0.86 0.93 0.85 0.92 1.05 1.16 1.28 1.38 1.48 1.61 1.83 1.98 1.86 1.75 1.78 1.73 1.58 1.46 1.38 1.43
0.12 0.15 0.19 0.41 0.52 0.40 0.30 0.23 0.19 0.22 0.31 0.28 0.32 0.50 0.51 0.58 0.72 0.82 0.91 0.93 0.84 0.75 0.69 0.75 0.85 0.90 1.02 1.06 1.16 1.28 1.22 1.32 1.44 1.47 1.65 1.82 1.78 1.65 1.57 1.57 1.55 1.53 1.49 1.43
0.10 0.12 0.13 0.16 0.23 0.30 0.32 0.27 0.21 0.18 0.21 0.34 0.33 0.38 0.49 0.60 0.64 0.81 0.89 0.82 0.77 0.72 0.69 0.75 0.88 0.89 0.90 0.94 0.94 1.00 0.96 1.11 1.12 1.18 1.29 1.39 1.37 1.37 1.35 1.30 1.28 1.33 1.41 1.36
0.19 0.18 0.17 0.15 0.18 0.22 0.26 0.26 0.18 0.14 0.12 0.16 0.28 0.49 0.53 0.56 0.62 0.75 0.77 0.75 0.75 0.82 0.87 0.89 0.92 0.97 0.88 0.82 0.77 0.71 0.75 0.88 0.99 1.10 1.08 1.15 1.25 1.18 1.14 1.16 1.14 1.18 1.27 1.37
0.37 0.33 0.30 0.25 0.21 0.27 0.32 0.26 0.19 0.14 0.13 0.14 0.32 0.59 0.60 0.61 0.64 0.75 0.84 0.85 0.76 0.76 0.81 0.90 0.95 0.92 0.77 0.72 0.70 0.70 0.73 0.79 0.84 0.93 1.06 1.15 1.23 1.19 1.12 1.18 1.29 1.30 1.43 1.49
0.45 0.49 0.42 0.37 0.44 0.58 0.39 0.25 0.21 0.22 0.21 0.22 0.28 0.38 0.47 0.61 0.63 0.62 0.70 0.82 0.84 0.85 0.92 0.93 0.87 0.83 0.79 0.76 0.77 0.78 0.77 0.82 0.91 0.92 0.98 1.06 1.13 1.12 1.12 1.13 1.21 1.32 1.49 1.58
0.35 0.52 0.54 0.51 0.60 0.52 0.43 0.37 0.35 0.38 0.39 0.35 0.44 0.43 0.49 0.55 0.60 0.73 0.64 0.68 0.70 0.86 0.90 0.94 0.94 0.96 0.97 0.93 0.97 1.00 0.95 0.96 1.05 1.13 1.16 1.10 1.16 1.22 1.26 1.29 1.33 1.41 1.50 1.55
0.45 0.58 0.72 0.67 0.80 0.81 0.67 0.57 0.49 0.51 0.85 0.65 0.60 0.61 0.69 0.72 0.84 1.01 0.81 0.71 0.77 0.85 0.84 0.91 0.89 0.93 1.02 1.04 1.17 1.23 1.23 1.21 1.25 1.33 1.41 1.43 1.50 1.55 1.51 1.61 1.72 1.75 1.76 1.71
0.93 0.93 0.86 0.86 0.99 0.99 0.78 0.66 0.61 1.01 1.22 0.80 0.72 0.77 0.76 0.80 0.92 0.95 0.93 0.92 0.90 0.76 0.72 0.78 0.88 0.88 0.97 1.13 1.29 1.42 1.44 1.37 1.43 1.53 1.64 1.76 1.86 2.01 2.14 2.23 2.14 2.08 2.09 2.11
1.10 1.19 1.18 1.20 1.38 1.31 0.84 0.78 1.11 1.33 1.00 1.02 0.92 0.84 0.83 0.78 0.86 0.92 0.93 0.88 0.76 0.73 0.74 0.78 0.92 0.93 0.97 1.13 1.30 1.45 1.48 1.52 1.69 1.82 1.97 2.07 2.25 2.32 2.42 2.77 2.81 2.79 2.74 2.47
1.23 1.28 1.27 1.33 1.43 1.17 1.01 1.17 1.25 1.21 1.18 1.22 1.25 1.06 0.95 0.88 0.90 0.93 0.85 0.77 0.69 0.70 0.72 0.78 0.93 1.05 1.08 1.17 1.39 1.64 1.70 1.76 1.88 2.00 2.19 2.32 2.40 2.54 2.67 2.80 2.79 2.82 2.75 2.49
1.36 1.14 1.28 1.44 1.54 1.33 1.24 1.25 1.29 1.26 1.21 1.21 1.28 1.40 1.37 1.12 0.97 0.99 0.95 0.86 0.84 0.88 0.85 0.86 0.97 1.12 1.30 1.41 1.58 1.84 1.89 2.01 2.08 2.13 2.24 2.33 2.41 2.52 2.69 2.83 2.75 2.65 2.57 2.50
1.34 1.37 1.54 1.79 1.78 1.63 1.49 1.53 1.64 1.54 1.39 1.40 1.39 1.44 1.49 1.20 0.99 0.95 1.02 0.98 0.96 1.05 1.07 1.05 1.10 1.21 1.42 1.61 1.76 1.84 1.89 2.08 2.26 2.27 2.30 2.39 2.40 2.41 2.51 2.58 2.65 2.55 2.47 2.44
1.37 1.52 1.78 1.99 1.81 1.92 1.78 1.50 1.60 1.72 1.57 1.57 1.51 1.42 1.27 1.15 1.10 1.11 1.10 1.07 1.06 1.17 1.20 1.21 1.21 1.28 1.45 1.62 1.84 1.95 2.07 2.21 2.32 2.35 2.27 2.33 2.38 2.37 2.36 2.34 2.21 2.16 2.10 2.04

GEFSCGP_prec_meanprecacc_258.txt.gz
Total_Precipitation_Accumulation
0.00 0.01 0.02 0.03 0.03 0.04 0.08 0.10 0.15 0.19 0.16 0.20 0.36 0.54 0.59 0.77 1.07 1.38 1.73 1.97 2.31 2.63 3.00 3.41 3.50 3.74 4.07 4.67 5.14 5.37 5.37 5.18 4.89 4.49 4.10 3.93 3.84 3.82 3.68 3.53 3.36 3.25 3.17 3.25
0.01 0.03 0.02 0.02 0.02 0.04 0.07 0.11 0.16 0.18 0.16 0.19 0.37 0.57 0.67 1.01 1.33 1.39 1.57 1.71 1.90 2.34 2.67 2.99 3.16 3.25 3.67 4.26 4.70 4.86 4.62 4.51 4.34 4.08 3.98 3.96 4.17 3.90 3.66 3.55 3.39 3.13 3.08 3.19
0.03 0.04 0.02 0.02 0.02 0.03 0.05 0.08 0.12 0.18 0.18 0.25 0.39 0.73 0.94 1.16 1.29 1.33 1.43 1.58 1.70 1.98 2.30 2.61 2.72 2.88 3.09 3.20 3.49 3.65 3.82 3.77 3.65 3.63 3.60 3.63 3.87 3.68 3.52 3.43 3.34 2.98 2.82 2.80
0.03 0.03 0.03 0.04 0.05 0.05 0.07 0.07 0.07 0.10 0.18 0.31 0.46 1.01 1.27 1.23 1.28 1.41 1.40 1.39 1.64 1.94 1.93 2.04 2.26 2.43 2.68 2.82 3.02 3.09 3.13 3.27 3.31 3.37 3.28 3.11 3.04 2.99 2.96 3.05 3.01 2.95 2.81 2.70
0.05 0.04 0.03 0.05 0.06 0.04 0.05 0.05 0.07 0.11 0.21 0.33 0.46 0.78 1.20 1.53 1.60 1.41 1.35 1.24 1.44 1.59 1.50 1.48 1.65 1.79 2.02 2.22 2.46 2.62 2.75 2.85 2.98 3.03 2.96 2.94 2.74 2.73 2.79 2.85 2.88 2.85 2.81 2.77
0.05 0.05 0.04 0.04 0.04 0.04 0.05 0.07 0.13 0.25 0.44 0.67 0.57 0.71 1.14 1.48 1.73 1.48 1.27 1.19 1.29 1.28 1.25 1.36 1.48 1.58 1.70 1.96 2.13 2.28 2.44 2.50 2.62 2.67 2.72 2.71 2.66 2.65 2.67 2.68 2.68 2.67 2.68 2.58
0.12 0.12 0.10 0.06 0.06 0.06 0.06 0.13 0.47 0.84 1.12 1.14 0.73 0.79 1.15 1.16 1.19 1.21 1.17 1.22 1.23 1.17 1.13 1.14 1.22 1.36 1.51 1.71 1.83 1.89 2.04 2.14 2.16 2.21 2.29 2.33 2.40 2.50 2.39 2.32 2.35 2.35 2.20 2.09
0.17 0.24 0.15 0.09 0.09 0.10 0.11 0.15 0.51 0.79 0.85 0.95 0.82 1.11 1.44 1.15 1.07 1.00 1.08 1.18 1.18 1.04 0.97 1.00 1.10 1.16 1.22 1.39 1.57 1.60 1.72 1.84 2.00 2.04 2.06 2.11 2.10 2.11 2.01 2.06 2.06 2.02 1.81 1.73
0.10 0.11 0.08 0.08 0.09 0.11 0.15 0.18 0.23 0.45 0.51 0.72 0.93 1.22 1.39 1.09 1.05 1.17 1.30 1.28 1.23 0.97 0.82 0.84 0.86 0.90 0.91 1.00 1.14 1.25 1.52 1.67 1.77 1.86 1.89 1.85 1.79 1.81 1.83 1.88 1.98 1.89 1.85 1.73
0.06 0.05 0.06 0.07 0.09 0.12 0.15 0.16 0.19 0.37 0.56 0.77 0.91 1.27 1.57 1.52 1.36 1.29 1.37 1.22 0.95 0.79 0.68 0.63 0.64 0.65 0.72 0.80 0.88 1.02 1.24 1.35 1.45 1.62 1.69 1.57 1.71 1.81 1.83 1.82 1.71 1.69 1.73 1.74
0.05 0.04 0.06 0.09 0.12 0.14 0.19 0.21 0.29 0.40 0.44 0.66 1.03 1.24 1.19 1.24 1.17 1.22 1.21 1.04 0.80 0.65 0.60 0.61 0.60 0.63 0.70 0.74 0.85 1.01 1.24 1.38 1.37 1.47 1.56 1.58 1.67 1.79 1.82 1.73 1.63 1.62 1.64 1.69
0.07 0.06 0.10 0.16 0.18 0.17 0.17 0.19 0.28 0.42 0.42 0.46 0.71 0.93 0.67 0.73 0.75 0.82 0.88 0.77 0.69 0.66 0.62 0.68 0.73 0.73 0.74 0.82 0.92 1.04 1.19 1.36 1.41 1.52 1.68 1.82 1.78 1.72 1.73 1.72 1.63 1.55 1.49 1.56
0.11 0.12 0.17 0.38 0.48 0.30 0.19 0.17 0.19 0.24 0.27 0.30 0.53 0.73 0.52 0.59 0.70 0.83 0.92 0.93 0.88 0.79 0.65 0.68 0.87 0.94 0.86 0.93 1.06 1.17 1.29 1.40 1.49 1.62 1.84 1.98 1.86 1.75 1.78 1.73 1.58 1.46 1.39 1.43
0.12 0.15 0.19 0.41 0.52 0.40 0.30 0.23 0.19 0.22 0.31 0.28 0.32 0.50 0.51 0.58 0.72 0.82 0.91 0.93 0.84 0.75 0.69 0.75 0.85 0.91 1.03 1.06 1.16 1.28 1.22 1.33 1.45 1.48 1.66 1.82 1.78 1.65 1.57 1.57 1.55 1.54 1.50 1.44
0.10 0.12 0.13 0.16 0.23 0.30 0.32 0.27 0.21 0.18 0.21 0.34 0.33 0.38 0.49 0.60 0.64 0.81 0.89 0.82 0.77 0.72 0.69 0.76 0.88 0.89 0.90 0.94 0.94 1.01 0.96 1.12 1.12 1.19 1.30 1.40 1.37 1.38 1.37 1.32 1.28 1.34 1.43 1.38
0.19 0.18 0.17 0.15 0.18 0.23 0.26 0.26 0.18 0.14 0.12 0.16 0.28 0.49 0.53 0.56 0.62 0.75 0.77 0.76 0.76 0.83 0.87 0.89 0.92 0.97 0.88 0.83 0.78 0.72 0.76 0.89 1.00 1.12 1.10 1.18 1.27 1.20 1.16 1.18 1.15 1.20 1.29 1.39
0.37 0.33 0.30 0.25 0.21 0.27 0.32 0.26 0.19 0.14 0.13 0.14 0.32 0.59 0.60 0.61 0.64 0.75 0.84 0.85 0.76 0.77 0.82 0.90 0.95 0.93 0.77 0.72 0.71 0.72 0.75 0.82 0.88 0.99 1.13 1.23 1.30 1.24 1.17 1.22 1.32 1.32 1.46 1.52
0.45 0.49 0.42 0.37 0.44 0.58 0.39 0.26 0.21 0.22 0.21 0.22 0.28 0.38 0.47 0.61 0.63 0.62 0.71 0.83 0.85 0.87 0.94 0.94 0.88 0.83 0.80 0.78 0.80 0.82 0.82 0.87 0.97 1.00 1.10 1.20 1.24 1.21 1.20 1.19 1.27 1.39 1.55 1.62
0.35 0.52 0.54 0.51 0.60 0.52 0.43 0.37 0.35 0.38 0.39 0.36 0.45 0.43 0.49 0.55 0.60 0.74 0.65 0.69 0.72 0.87 0.92 0.96 0.96 0.98 0.98 0.95 1.00 1.03 0.99 1.00 1.10 1.20 1.26 1.23 1.28 1.31 1.34 1.36 1.42 1.49 1.54 1.56
0.45 0.58 0.72 0.67 0.80 0.81 0.67 0.57 0.49 0.52 0.85 0.65 0.61 0.62 0.70 0.74 0.85 1.01 0.82 0.71 0.77 0.86 0.85 0.92 0.90 0.94 1.04 1.07 1.20 1.26 1.27 1.26 1.30 1.39 1.49 1.51 1.60 1.66 1.61 1.69 1.79 1.80 1.79 1.73
0.93 0.93 0.86 0.86 0.99 0.99 0.78 0.66 0.61 1.02 1.23 0.80 0.72 0.77 0.76 0.81 0.93 0.95 0.93 0.92 0.91 0.76 0.73 0.79 0.89 0.89 0.98 1.17 1.38 1.53 1.51 1.42 1.49 1.60 1.73 1.88 1.98 2.14 2.28 2.34 2.22 2.14 2.13 2.14
1.10 1.19 1.18 1.21 1.38 1.31 0.84 0.78 1.11 1.33 1.00 1.02 0.92 0.84 0.84 0.79 0.87 0.93 0.93 0.89 0.77 0.75 0.75 0.79 0.93 0.93 0.98 1.15 1.34 1.52 1.55 1.57 1.74 1.87 2.04 2.17 2.37 2.45 2.54 2.86 2.88 2.84 2.77 2.51
1.23 1.28 1.27 1.33 1.43 1.17 1.01 1.17 1.26 1.22 1.18 1.22 1.26 1.07 0.96 0.89 0.91 0.94 0.86 0.78 0.71 0.73 0.74 0.79 0.94 1.06 1.09 1.18 1.41 1.66 1.72 1.79 1.91 2.03 2.23 2.38 2.47 2.61 2.75 2.87 2.86 2.87 2.80 2.54
1.36 1.14 1.29 1.44 1.55 1.33 1.24 1.25 1.29 1.27 1.22 1.22 1.30 1.43 1.40 1.14 0.99 1.00 0.97 0.87 0.85 0.91 0.87 0.88 0.98 1.13 1.31 1.42 1.59 1.85 1.91 2.02 2.10 2.14 2.26 2.36 2.47 2.59 2.76 2.89 2.80 2.71 2.64 2.56
1.34 1.37 1.55 1.79 1.79 1.64 1.50 1.53 1.65 1.54 1.39 1.41 1.41 1.47 1.53 1.23 1.01 0.96 1.03 0.99 0.98 1.07 1.10 1.08 1.11 1.22 1.43 1.61 1.77 1.85 1.90 2.09 2.27 2.28 2.31 2.41 2.45 2.46 2.57 2.63 2.70 2.60 2.53 2.52
1.38 1.53 1.79 2.00 1.82 1.93 1.79 1.50 1.60 1.72 1.57 1.58 1.53 1.44 1.29 1.19 1.13 1.13 1.12 1.09 1.09 1.19 1.23 1.24 1.23 1.29 1.46 1.63 1.84 1.95 2.07 2.21 2.33 2.36 2.30 2.36 2.43 2.43 2.43 2.40 2.28 2.23 2.18 2.11

GEFSCGP_prec_meanprecacc_264.txt.gz
Total_Precipitation_Accumulation
0.00 0.01 0.02 0.03 0.03 0.04 0.08 0.10 0.15 0.19 0.16 0.20 0.36 0.55 0.59 0.77 1.07 1.38 1.73 1.97 2.31 2.63 3.01 3.43 3.53 3.78 4.08 4.69 5.15 5.38 5.39 5.21 4.91 4.51 4.13 3.97 3.89 3.85 3.71 3.57 3.39 3.27 3.20 3.28
0.01 0.03 0.02 0.02 0.02 0.04 0.07 0.11 0.16 0.18 0.16 0.19 0.37 0.57 0.67 1.01 1.33 1.39 1.57 1.71 1.90 2.34 2.67 3.00 3.20 3.30 3.69 4.28 4.71 4.87 4.64 4.53 4.36 4.11 4.01 4.00 4.20 3.92 3.70 3.59 3.42 3.15 3.10 3.21
0.03 0.04 0.02 0.02 0.02 0.03 0.05 0.08 0.12 0.18 0.18 0.25 0.39 0.73 0.94 1.16 1.29 1.33 1.43 1.58 1.70 1.98 2.30 2.61 2.76 2.93 3.13 3.24 3.50 3.66 3.83 3.78 3.67 3.65 3.63 3.66 3.90 3.72 3.56 3.46 3.38 3.01 2.84 2.81
0.03 0.03 0.03 0.04 0.05 0.05 0.07 0.07 0.07 0.10 0.18 0.31 0.46 1.01 1.27 1.23 1.28 1.41 1.40 1.39 1.64 1.94 1.93 2.05 2.29 2.47 2.73 2.86 3.04 3.10 3.14 3.27 3.32 3.39 3.30 3.14 3.07 3.04 3.01 3.10 3.05 2.98 2.83 2.72
0.05 0.04 0.03 0.05 0.06 0.04 0.05 0.05 0.07 0.11 0.21 0.33 0.46 0.78 1.20 1.53 1.60 1.41 1.35 1.24 1.44 1.59 1.50 1.49 1.67 1.81 2.08 2.27 2.50 2.64 2.76 2.87 2.99 3.05 2.99 2.97 2.78 2.78 2.84 2.90 2.93 2.89 2.84 2.81
0.05 0.05 0.04 0.04 0.04 0.04 0.05 0.07 0.13 0.25 0.44 0.67 0.57 0.71 1.14 1.48 1.73 1.48 1.27 1.19 1.29 1.28 1.25 1.36 1.49 1.59 1.76 2.02 2.20 2.32 2.47 2.52 2.64 2.69 2.75 2.75 2.71 2.70 2.71 2.72 2.73 2.73 2.73 2.64
0.12 0.12 0.10 0.06 0.06 0.06 0.06 0.13 0.47 0.84 1.12 1.14 0.73 0.79 1.15 1.16 1.19 1.21 1.17 1.22 1.23 1.17 1.13 1.14 1.23 1.37 1.54 1.77 1.90 1.95 2.08 2.17 2.18 2.23 2.33 2.40 2.49 2.58 2.45 2.37 2.41 2.41 2.27 2.16
0.17 0.24 0.15 0.09 0.09 0.10 0.11 0.15 0.51 0.79 0.85 0.95 0.82 1.11 1.44 1.15 1.07 1.00 1.08 1.18 1.18 1.04 0.97 1.00 1.10 1.16 1.23 1.42 1.63 1.67 1.77 1.89 2.04 2.07 2.12 2.21 2.21 2.23 2.10 2.11 2.13 2.12 1.92 1.84
0.10 0.11 0.08 0.08 0.09 0.11 0.16 0.18 0.23 0.45 0.51 0.72 0.93 1.22 1.39 1.09 1.05 1.17 1.30 1.28 1.23 0.97 0.82 0.84 0.86 0.90 0.91 1.01 1.17 1.31 1.57 1.73 1.83 1.91 1.99 1.98 1.91 1.94 1.89 1.91 2.04 2.00 1.96 1.82
0.06 0.05 0.06 0.07 0.09 0.12 0.15 0.16 0.19 0.37 0.56 0.77 0.91 1.27 1.57 1.52 1.36 1.29 1.37 1.22 0.95 0.79 0.68 0.63 0.64 0.65 0.72 0.81 0.89 1.06 1.28 1.40 1.51 1.69 1.80 1.70 1.85 1.89 1.86 1.84 1.74 1.77 1.83 1.81
0.05 0.04 0.06 0.09 0.12 0.14 0.19 0.21 0.29 0.40 0.44 0.66 1.03 1.24 1.19 1.24 1.17 1.22 1.21 1.04 0.80 0.65 0.60 0.61 0.61 0.63 0.70 0.74 0.85 1.02 1.26 1.41 1.42 1.52 1.63 1.67 1.75 1.83 1.84 1.75 1.65 1.66 1.69 1.72
0.07 0.06 0.10 0.16 0.18 0.17 0.17 0.19 0.28 0.42 0.42 0.46 0.71 0.93 0.67 0.73 0.75 0.82 0.88 0.77 0.69 0.66 0.62 0.68 0.73 0.74 0.74 0.82 0.92 1.05 1.20 1.38 1.45 1.56 1.73 1.87 1.81 1.74 1.75 1.74 1.65 1.57 1.50 1.57
0.11 0.12 0.17 0.38 0.48 0.30 0.19 0.17 0.19 0.24 0.27 0.30 0.53 0.73 0.52 0.59 0.70 0.83 0.92 0.93 0.88 0.79 0.65 0.68 0.87 0.94 0.86 0.93 1.07 1.18 1.30 1.41 1.51 1.65 1.87 2.01 1.89 1.78 1.80 1.76 1.60 1.48 1.40 1.44
0.12 0.15 0.19 0.41 0.52 0.40 0.30 0.23 0.19 0.22 0.31 0.28 0.32 0.50 0.52 0.58 0.72 0.82 0.91 0.93 0.84 0.75 0.69 0.75 0.85 0.91 1.03 1.07 1.17 1.30 1.24 1.34 1.46 1.49 1.68 1.85 1.81 1.69 1.61 1.59 1.57 1.55 1.51 1.44
0.10 0.12 0.13 0.16 0.23 0.30 0.32 0.27 0.21 0.18 0.21 0.34 0.33 0.38 0.49 0.60 0.64 0.81 0.89 0.82 0.77 0.72 0.70 0.76 0.88 0.90 0.90 0.95 0.95 1.01 0.97 1.12 1.12 1.20 1.31 1.43 1.41 1.43 1.40 1.35 1.31 1.36 1.44 1.39
0.19 0.18 0.17 0.15 0.18 0.23 0.26 0.26 0.18 0.14 0.12 0.16 0.28 0.49 0.53 0.56 0.62 0.75 0.77 0.76 0.76 0.83 0.87 0.89 0.92 0.97 0.89 0.83 0.78 0.72 0.77 0.90 1.01 1.14 1.12 1.20 1.30 1.23 1.19 1.21 1.18 1.22 1.31 1.40
0.37 0.33 0.30 0.25 0.21 0.27 0.32 0.26 0.19 0.14 0.13 0.14 0.32 0.59 0.60 0.61 0.64 0.75 0.84 0.85 0.76 0.77 0.82 0.91 0.96 0.93 0.78 0.73 0.72 0.73 0.76 0.83 0.89 1.00 1.15 1.24 1.31 1.26 1.19 1.24 1.34 1.35 1.48 1.54
0.45 0.49 0.42 0.37 0.44 0.58 0.39 0.26 0.22 0.22 0.21 0.22 0.28 0.38 0.47 0.61 0.63 0.62 0.71 0.83 0.85 0.87 0.94 0.95 0.89 0.84 0.80 0.79 0.81 0.83 0.83 0.88 0.98 1.01 1.12 1.22 1.25 1.22 1.22 1.22 1.30 1.41 1.58 1.64
0.35 0.52 0.54 0.51 0.60 0.52 0.43 0.37 0.35 0.38 0.39 0.36 0.45 0.43 0.49 0.55 0.60 0.74 0.65 0.69 0.72 0.88 0.92 0.96 0.96 0.98 0.99 0.95 1.01 1.05 1.00 1.02 1.11 1.21 1.28 1.26 1.29 1.33 1.36 1.40 1.46 1.53 1.58 1.59
0.45 0.58 0.72 0.67 0.80 0.81 0.67 0.57 0.49 0.52 0.85 0.65 0.61 0.62 0.70 0.74 0.85 1.01 0.82 0.71 0.77 0.86 0.86 0.92 0.90 0.94 1.04 1.07 1.21 1.27 1.28 1.27 1.31 1.40 1.50 1.53 1.62 1.69 1.65 1.75 1.86 1.86 1.84 1.77
0.93 0.94 0.86 0.87 0.99 0.99 0.78 0.66 0.62 1.03 1.23 0.81 0.72 0.77 0.76 0.81 0.93 0.95 0.93 0.92 0.91 0.76 0.73 0.79 0.89 0.89 0.99 1.17 1.39 1.54 1.52 1.44 1.50 1.61 1.74 1.90 2.00 2.17 2.33 2.41 2.29 2.20 2.19 2.18
1.10 1.19 1.18 1.21 1.38 1.31 0.84 0.78 1.12 1.34 1.01 1.03 0.92 0.85 0.84 0.79 0.87 0.93 0.94 0.90 0.77 0.75 0.75 0.80 0.93 0.93 0.98 1.15 1.35 1.53 1.56 1.58 1.75 1.89 2.05 2.18 2.38 2.47 2.56 2.89 2.93 2.91 2.84 2.56
1.23 1.28 1.28 1.33 1.43 1.17 1.01 1.17 1.26 1.23 1.20 1.23 1.26 1.07 0.97 0.89 0.91 0.94 0.86 0.78 0.71 0.73 0.74 0.79 0.95 1.07 1.10 1.19 1.42 1.67 1.73 1.80 1.92 2.04 2.24 2.39 2.47 2.62 2.76 2.89 2.88 2.91 2.84 2.57
1.36 1.15 1.29 1.44 1.55 1.33 1.25 1.26 1.30 1.28 1.23 1.23 1.31 1.43 1.40 1.14 0.99 1.01 0.97 0.87 0.85 0.91 0.88 0.88 0.98 1.13 1.32 1.43 1.60 1.86 1.91 2.03 2.10 2.15 2.27 2.37 2.47 2.60 2.77 2.91 2.82 2.75 2.69 2.61
1.35 1.38 1.56 1.80 1.79 1.64 1.51 1.54 1.65 1.55 1.41 1.42 1.42 1.47 1.53 1.24 1.02 0.97 1.04 1.01 0.99 1.08 1.11 1.09 1.12 1.23 1.44 1.62 1.78 1.85 1.90 2.09 2.28 2.28 2.32 2.42 2.46 2.47 2.58 2.64 2.72 2.64 2.59 2.61
1.39 1.53 1.80 2.01 1.83 1.94 1.80 1.51 1.61 1.73 1.58 1.59 1.54 1.44 1.30 1.19 1.14 1.14 1.13 1.11 1.11 1.22 1.25 1.25 1.24 1.31 1.47 1.64 1.85 1.95 2.08 2.22 2.33 2.37 2.31 2.38 2.44 2.44 2.44 2.43 2.32 2.27 2.23 2.19

GEFSCGP_prec_meanprecacc_270.txt.gz
Total_Precipitation_Accumulation
0.00 0.01 0.03 0.03 0.03 0.04 0.08 0.10 0.15 0.19 0.16 0.21 0.36 0.55 0.59 0.77 1.07 1.38 1.73 1.97 2.31 2.63 3.01 3.43 3.53 3.80 4.11 4.71 5.17 5.41 5.42 5.23 4.95 4.58 4.21 4.05 3.97 3.92 3.77 3.63 3.43 3.30 3.22 3.29
0.01 0.03 0.02 0.02 0.03 0.04 0.08 0.11 0.16 0.19 0.16 0.20 0.37 0.57 0.67 1.01 1.33 1.39 1.57 1.71 1.90 2.34 2.67 3.00 3.21 3.31 3.72 4.30 4.73 4.89 4.66 4.56 4.40 4.18 4.09 4.06 4.25 3.97 3.74 3.64 3.46 3.17 3.11 3.22
0.04 0.04 0.02 0.02 0.02 0.03 0.05 0.08 0.13 0.19 0.18 0.26 0.39 0.74 0.95 1.16 1.29 1.33 1.43 1.58 1.70 1.98 2.30 2.62 2.77 2.93 3.17 3.27 3.52 3.68 3.85 3.80 3.69 3.69 3.67 3.70 3.94 3.76 3.60 3.51 3.42 3.04 2.86 2.83
0.04 0.03 0.03 0.04 0.05 0.05 0.07 0.07 0.07 0.11 0.19 0.32 0.47 1.02 1.28 1.24 1.28 1.41 1.40 1.39 1.64 1.94 1.93 2.05 2.30 2.48 2.75 2.91 3.08 3.12 3.15 3.29 3.33 3.42 3.34 3.17 3.11 3.08 3.05 3.14 3.09 3.01 2.84 2.73
0.05 0.04 0.03 0.05 0.06 0.05 0.06 0.05 0.07 0.15 0.23 0.34 0.46 0.79 1.21 1.54 1.60 1.41 1.35 1.24 1.44 1.59 1.50 1.49 1.68 1.83 2.10 2.31 2.54 2.67 2.77 2.87 3.00 3.06 3.02 3.00 2.80 2.80 2.86 2.93 2.95 2.91 2.86 2.81
0.05 0.05 0.04 0.04 0.04 0.04 0.05 0.07 0.14 0.27 0.45 0.68 0.58 0.71 1.14 1.49 1.74 1.48 1.28 1.19 1.29 1.28 1.25 1.37 1.50 1.61 1.78 2.05 2.23 2.35 2.47 2.53 2.64 2.69 2.77 2.77 2.72 2.71 2.73 2.74 2.75 2.75 2.76 2.66
0.12 0.12 0.10 0.06 0.06 0.06 0.06 0.14 0.48 0.85 1.13 1.14 0.74 0.79 1.15 1.16 1.19 1.22 1.17 1.22 1.23 1.17 1.13 1.14 1.23 1.37 1.56 1.78 1.93 1.97 2.08 2.17 2.19 2.24 2.34 2.42 2.50 2.59 2.46 2.38 2.42 2.43 2.29 2.20
0.17 0.24 0.15 0.09 0.09 0.10 0.11 0.16 0.53 0.82 0.87 0.96 0.84 1.11 1.45 1.15 1.07 1.00 1.08 1.18 1.18 1.04 0.97 1.00 1.10 1.16 1.24 1.43 1.65 1.68 1.77 1.90 2.05 2.08 2.14 2.24 2.25 2.27 2.12 2.14 2.16 2.14 1.95 1.88
0.10 0.11 0.08 0.08 0.09 0.11 0.16 0.18 0.24 0.46 0.53 0.73 0.95 1.23 1.40 1.09 1.06 1.17 1.30 1.28 1.23 0.98 0.83 0.85 0.86 0.91 0.92 1.03 1.20 1.33 1.58 1.74 1.84 1.92 2.01 2.02 1.97 2.04 1.97 1.97 2.09 2.06 2.04 1.90
0.06 0.05 0.07 0.07 0.09 0.12 0.15 0.16 0.19 0.37 0.58 0.79 0.92 1.28 1.58 1.53 1.36 1.30 1.37 1.22 0.95 0.79 0.68 0.63 0.64 0.65 0.73 0.82 0.94 1.10 1.31 1.42 1.52 1.70 1.82 1.73 1.90 1.97 1.95 1.91 1.81 1.85 1.94 1.91
0.05 0.04 0.06 0.09 0.12 0.14 0.19 0.21 0.29 0.40 0.45 0.68 1.04 1.25 1.19 1.24 1.17 1.23 1.22 1.04 0.80 0.65 0.60 0.61 0.61 0.64 0.71 0.75 0.89 1.08 1.30 1.44 1.44 1.54 1.65 1.70 1.80 1.89 1.89 1.80 1.71 1.74 1.79 1.79
0.07 0.06 0.10 0.16 0.18 0.17 0.17 0.19 0.28 0.42 0.42 0.46 0.72 0.95 0.68 0.73 0.75 0.83 0.88 0.77 0.69 0.66 0.62 0.68 0.74 0.74 0.75 0.82 0.94 1.10 1.25 1.42 1.48 1.59 1.77 1.91 1.85 1.79 1.79 1.77 1.68 1.61 1.54 1.60
0.11 0.12 0.17 0.38 0.48 0.30 0.19 0.17 0.19 0.24 0.27 0.30 0.53 0.74 0.52 0.59 0.70 0.83 0.92 0.93 0.88 0.79 0.65 0.69 0.87 0.94 0.87 0.94 1.08 1.22 1.35 1.45 1.54 1.68 1.92 2.06 1.93 1.81 1.84 1.79 1.62 1.49 1.41 1.46
0.12 0.15 0.19 0.41 0.52 0.40 0.30 0.23 0.19 0.22 0.31 0.28 0.32 0.50 0.52 0.59 0.72 0.82 0.91 0.93 0.84 0.75 0.69 0.75 0.85 0.91 1.03 1.08 1.19 1.32 1.26 1.37 1.49 1.53 1.73 1.90 1.86 1.72 1.63 1.61 1.58 1.56 1.52 1.46
0.10 0.12 0.13 0.16 0.23 0.30 0.32 0.27 0.21 0.18 0.21 0.34 0.33 0.38 0.49 0.60 0.65 0.81 0.89 0.82 0.77 0.72 0.70 0.76 0.88 0.90 0.91 0.95 0.96 1.03 0.99 1.14 1.14 1.23 1.35 1.47 1.46 1.47 1.43 1.37 1.33 1.37 1.45 1.41
0.19 0.18 0.17 0.15 0.18 0.23 0.26 0.26 0.18 0.14 0.12 0.16 0.28 0.49 0.53 0.56 0.63 0.76 0.77 0.76 0.76 0.83 0.87 0.90 0.93 0.97 0.89 0.84 0.79 0.73 0.78 0.91 1.02 1.15 1.13 1.22 1.33 1.25 1.22 1.23 1.20 1.24 1.32 1.43
0.37 0.33 0.30 0.25 0.21 0.27 0.32 0.26 0.19 0.14 0.13 0.14 0.32 0.59 0.60 0.61 0.64 0.76 0.84 0.85 0.77 0.77 0.83 0.91 0.96 0.94 0.78 0.74 0.73 0.74 0.77 0.83 0.89 1.01 1.16 1.26 1.33 1.28 1.21 1.26 1.36 1.37 1.50 1.56
0.45 0.49 0.42 0.37 0.44 0.58 0.39 0.26 0.22 0.22 0.21 0.22 0.28 0.38 0.47 0.61 0.63 0.62 0.71 0.83 0.86 0.87 0.94 0.95 0.90 0.85 0.81 0.79 0.82 0.84 0.84 0.90 0.99 1.02 1.14 1.24 1.26 1.25 1.24 1.24 1.32 1.44 1.61 1.67
0.35 0.52 0.54 0.51 0.60 0.52 0.43 0.37 0.35 0.38 0.39 0.36 0.45 0.43 0.49 0.55 0.61 0.74 0.65 0.69 0.72 0.88 0.93 0.97 0.97 0.99 0.99 0.96 1.02 1.05 1.00 1.03 1.12 1.23 1.30 1.28 1.32 1.35 1.38 1.42 1.50 1.57 1.61 1.63
0.45 0.58 0.72 0.67 0.81 0.81 0.67 0.57 0.49 0.52 0.85 0.65 0.61 0.62 0.70 0.74 0.86 1.03 0.82 0.72 0.78 0.87 0.86 0.92 0.91 0.95 1.05 1.08 1.21 1.28 1.29 1.28 1.33 1.41 1.52 1.56 1.65 1.71 1.67 1.78 1.91 1.92 1.91 1.86
0.93 0.94 0.86 0.87 0.99 0.99 0.78 0.66 0.62 1.03 1.24 0.81 0.72 0.77 0.76 0.81 0.93 0.95 0.93 0.92 0.91 0.76 0.73 0.79 0.89 0.90 1.00 1.18 1.40 1.55 1.53 1.45 1.52 1.63 1.76 1.92 2.02 2.19 2.35 2.43 2.32 2.24 2.23 2.23
1.11 1.20 1.19 1.21 1.38 1.31 0.84 0.78 1.12 1.35 1.01 1.03 0.92 0.85 0.84 0.79 0.87 0.93 0.94 0.90 0.78 0.76 0.76 0.80 0.95 0.96 1.01 1.18 1.37 1.54 1.57 1.59 1.76 1.91 2.07 2.19 2.39 2.48 2.57 2.91 2.94 2.93 2.86 2.60
1.23 1.29 1.28 1.34 1.44 1.18 1.01 1.18 1.26 1.23 1.20 1.24 1.27 1.08 0.97 0.89 0.91 0.94 0.87 0.79 0.74 0.75 0.76 0.81 0.98 1.10 1.13 1.22 1.44 1.69 1.75 1.81 1.94 2.06 2.25 2.40 2.48 2.63 2.76 2.90 2.89 2.92 2.85 2.59
1.37 1.15 1.29 1.45 1.55 1.33 1.25 1.26 1.30 1.28 1.23 1.25 1.32 1.44 1.41 1.15 1.00 1.01 0.98 0.88 0.87 0.92 0.89 0.90 1.01 1.18 1.35 1.46 1.63 1.89 1.94 2.05 2.12 2.17 2.28 2.38 2.48 2.60 2.77 2.91 2.83 2.77 2.71 2.63
1.37 1.40 1.58 1.83 1.81 1.65 1.51 1.54 1.66 1.56 1.41 1.43 1.44 1.50 1.55 1.25 1.03 0.98 1.05 1.01 1.00 1.09 1.12 1.10 1.14 1.27 1.49 1.65 1.79 1.87 1.93 2.11 2.30 2.30 2.34 2.44 2.46 2.47 2.58 2.64 2.73 2.67 2.63 2.64
1.41 1.56 1.84 2.06 1.88 1.96 1.80 1.51 1.61 1.73 1.58 1.60 1.55 1.46 1.31 1.21 1.15 1.15 1.14 1.12 1.12 1.23 1.27 1.27 1.26 1.33 1.51 1.67 1.86 1.97 2.09 2.23 2.36 2.39 2.33 2.39 2.45 2.45 2.44 2.43 2.33 2.33 2.29 2.24

GEFSCGP_prec_meanprecacc_276.txt.gz
Total_Precipitation_Accumulation
0.01 0.02 0.05 0.05 0.06 0.06 0.09 0.11 0.16 0.19 0.17 0.21 0.37 0.56 0.60 0.77 1.07 1.38 1.74 1.97 2.31 2.64 3.02 3.45 3.55 3.81 4.13 4.73 5.18 5.42 5.43 5.26 4.98 4.61 4.23 4.06 3.99 3.95 3.80 3.65 3.45 3.31 3.22 3.29
0.01 0.03 0.03 0.04 0.06 0.06 0.09 0.12 0.17 0.19 0.17 0.20 0.39 0.59 0.69 1.02 1.34 1.40 1.58 1.71 1.91 2.34 2.69 3.03 3.23 3.32 3.74 4.33 4.76 4.92 4.68 4.57 4.43 4.20 4.10 4.07 4.27 3.99 3.78 3.67 3.48 3.18 3.12 3.23
0.04 0.04 0.02 0.02 0.03 0.06 0.08 0.09 0.14 0.20 0.19 0.27 0.41 0.77 0.96 1.18 1.32 1.35 1.44 1.59 1.70 1.99 2.30 2.63 2.78 2.94 3.18 3.30 3.57 3.72 3.87 3.82 3.72 3.71 3.69 3.72 3.96 3.80 3.66 3.56 3.45 3.07 2.87 2.84
0.04 0.03 0.03 0.05 0.05 0.06 0.08 0.08 0.09 0.14 0.21 0.35 0.49 1.05 1.31 1.26 1.31 1.43 1.42 1.40 1.65 1.94 1.94 2.05 2.31 2.48 2.77 2.95 3.14 3.19 3.21 3.31 3.36 3.44 3.35 3.19 3.14 3.14 3.13 3.19 3.12 3.03 2.85 2.74
0.05 0.04 0.04 0.06 0.06 0.05 0.06 0.06 0.08 0.17 0.26 0.38 0.48 0.81 1.23 1.56 1.62 1.43 1.36 1.25 1.45 1.59 1.50 1.49 1.68 1.84 2.12 2.35 2.59 2.72 2.81 2.89 3.03 3.09 3.05 3.02 2.84 2.85 2.91 2.96 2.97 2.92 2.87 2.82
0.05 0.05 0.05 0.05 0.04 0.05 0.05 0.08 0.15 0.29 0.48 0.72 0.61 0.74 1.16 1.52 1.78 1.52 1.29 1.20 1.30 1.28 1.25 1.37 1.50 1.61 1.78 2.09 2.28 2.37 2.50 2.55 2.67 2.73 2.80 2.80 2.75 2.73 2.75 2.77 2.78 2.77 2.77 2.67
0.12 0.12 0.10 0.06 0.06 0.07 0.07 0.15 0.50 0.88 1.16 1.18 0.78 0.82 1.17 1.17 1.20 1.23 1.19 1.23 1.24 1.18 1.14 1.14 1.23 1.38 1.56 1.81 1.99 2.01 2.11 2.20 2.22 2.27 2.37 2.44 2.52 2.60 2.48 2.40 2.45 2.46 2.31 2.21
0.17 0.24 0.15 0.09 0.09 0.10 0.11 0.16 0.55 0.87 0.91 1.00 0.88 1.14 1.46 1.16 1.07 1.01 1.09 1.19 1.18 1.05 0.97 1.01 1.11 1.17 1.25 1.45 1.68 1.72 1.80 1.91 2.07 2.10 2.15 2.26 2.27 2.29 2.14 2.16 2.18 2.16 1.96 1.89
0.11 0.11 0.08 0.08 0.09 0.12 0.16 0.18 0.25 0.48 0.57 0.76 0.98 1.26 1.42 1.11 1.07 1.18 1.30 1.29 1.24 0.99 0.84 0.86 0.87 0.91 0.93 1.05 1.22 1.34 1.59 1.74 1.85 1.94 2.03 2.04 2.00 2.05 1.99 1.99 2.11 2.07 2.05 1.93
0.06 0.05 0.07 0.07 0.09 0.12 0.16 0.16 0.20 0.39 0.61 0.81 0.93 1.31 1.61 1.56 1.39 1.32 1.39 1.23 0.97 0.80 0.70 0.65 0.66 0.66 0.74 0.85 0.96 1.11 1.32 1.42 1.53 1.71 1.84 1.75 1.93 2.02 1.99 1.95 1.84 1.88 1.97 1.96
0.05 0.04 0.07 0.09 0.12 0.15 0.19 0.22 0.29 0.41 0.45 0.69 1.06 1.28 1.22 1.27 1.19 1.24 1.23 1.05 0.82 0.67 0.62 0.63 0.63 0.65 0.72 0.77 0.92 1.10 1.31 1.45 1.45 1.55 1.66 1.72 1.83 1.94 1.94 1.84 1.76 1.77 1.82 1.86
0.07 0.06 0.10 0.16 0.18 0.17 0.17 0.20 0.28 0.43 0.42 0.46 0.73 0.96 0.69 0.75 0.77 0.84 0.89 0.78 0.71 0.68 0.64 0.70 0.76 0.76 0.77 0.85 0.98 1.14 1.27 1.43 1.49 1.61 1.79 1.93 1.89 1.86 1.86 1.81 1.72 1.64 1.57 1.64
0.11 0.12 0.17 0.38 0.48 0.30 0.19 0.17 0.20 0.24 0.28 0.30 0.54 0.75 0.53 0.60 0.72 0.84 0.93 0.93 0.89 0.80 0.66 0.70 0.89 0.96 0.89 0.96 1.11 1.29 1.40 1.50 1.58 1.73 1.98 2.11 1.99 1.88 1.92 1.85 1.65 1.52 1.44 1.49
0.12 0.15 0.19 0.41 0.52 0.41 0.30 0.24 0.20 0.23 0.31 0.29 0.32 0.50 0.52 0.59 0.74 0.84 0.93 0.96 0.85 0.76 0.70 0.76 0.86 0.92 1.05 1.09 1.21 1.38 1.35 1.45 1.57 1.61 1.81 1.97 1.92 1.78 1.70 1.67 1.61 1.58 1.54 1.48
0.10 0.12 0.13 0.16 0.24 0.30 0.32 0.27 0.21 0.18 0.21 0.34 0.33 0.39 0.49 0.60 0.66 0.83 0.91 0.87 0.80 0.73 0.70 0.77 0.91 0.92 0.92 0.96 0.97 1.06 1.05 1.21 1.21 1.29 1.40 1.51 1.49 1.50 1.46 1.40 1.34 1.39 1.47 1.43
0.19 0.18 0.17 0.15 0.18 0.23 0.26 0.26 0.18 0.14 0.12 0.16 0.28 0.50 0.54 0.58 0.64 0.78 0.80 0.78 0.78 0.84 0.89 0.91 0.97 1.03 0.93 0.87 0.82 0.75 0.81 0.95 1.06 1.19 1.17 1.25 1.35 1.27 1.24 1.25 1.22 1.26 1.35 1.46
0.37 0.33 0.30 0.25 0.21 0.27 0.32 0.26 0.20 0.14 0.13 0.15 0.32 0.60 0.60 0.63 0.69 0.82 0.88 0.88 0.78 0.79 0.85 0.95 1.00 0.99 0.84 0.79 0.76 0.77 0.79 0.85 0.92 1.03 1.18 1.29 1.36 1.30 1.23 1.28 1.38 1.39 1.52 1.58
0.45 0.49 0.42 0.37 0.44 0.58 0.39 0.26 0.22 0.23 0.21 0.22 0.28 0.39 0.47 0.62 0.65 0.67 0.74 0.86 0.88 0.89 0.97 1.00 0.95 0.89 0.86 0.84 0.86 0.87 0.87 0.93 1.02 1.05 1.16 1.26 1.28 1.27 1.27 1.27 1.35 1.47 1.64 1.69
0.35 0.52 0.54 0.51 0.60 0.52 0.43 0.37 0.35 0.39 0.39 0.36 0.45 0.43 0.50 0.56 0.62 0.78 0.69 0.72 0.74 0.90 0.96 1.00 1.01 1.03 1.03 0.99 1.05 1.08 1.03 1.07 1.17 1.26 1.33 1.31 1.35 1.38 1.41 1.44 1.52 1.60 1.64 1.66
0.45 0.58 0.72 0.67 0.81 0.81 0.67 0.57 0.50 0.52 0.86 0.65 0.61 0.62 0.70 0.75 0.87 1.06 0.86 0.76 0.82 0.91 0.89 0.94 0.94 1.00 1.11 1.14 1.25 1.29 1.30 1.30 1.36 1.46 1.56 1.59 1.68 1.74 1.70 1.81 1.94 1.95 1.94 1.89
0.94 0.94 0.86 0.87 0.99 0.99 0.78 0.66 0.62 1.03 1.24 0.81 0.73 0.77 0.77 0.81 0.94 0.96 0.95 0.95 0.94 0.78 0.75 0.82 0.93 0.93 1.03 1.23 1.43 1.57 1.55 1.46 1.54 1.66 1.79 1.96 2.06 2.23 2.38 2.46 2.35 2.26 2.25 2.25
1.11 1.21 1.19 1.22 1.39 1.31 0.84 0.78 1.12 1.35 1.02 1.03 0.93 0.86 0.85 0.81 0.89 0.96 0.95 0.92 0.82 0.81 0.80 0.85 0.98 0.98 1.03 1.21 1.40 1.57 1.59 1.60 1.78 1.93 2.09 2.22 2.42 2.51 2.60 2.94 2.96 2.94 2.87 2.61
1.24 1.30 1.29 1.35 1.45 1.18 1.01 1.18 1.27 1.23 1.21 1.24 1.28 1.10 0.99 0.92 0.94 0.98 0.91 0.84 0.78 0.79 0.79 0.84 0.99 1.11 1.15 1.25 1.48 1.73 1.78 1.84 1.95 2.08 2.27 2.42 2.50 2.64 2.78 2.91 2.90 2.93 2.85 2.60
1.38 1.16 1.31 1.47 1.57 1.35 1.26 1.27 1.31 1.29 1.24 1.26 1.35 1.46 1.43 1.17 1.01 1.02 1.00 0.91 0.89 0.95 0.90 0.91 1.02 1.19 1.37 1.48 1.65 1.91 1.97 2.08 2.15 2.19 2.30 2.40 2.49 2.61 2.78 2.91 2.83 2.77 2.71 2.63
1.40 1.41 1.60 1.86 1.84 1.67 1.52 1.55 1.67 1.56 1.43 1.46 1.48 1.51 1.57 1.26 1.04 0.99 1.06 1.02 1.01 1.10 1.13 1.11 1.15 1.28 1.50 1.67 1.83 1.91 1.96 2.14 2.32 2.32 2.36 2.46 2.47 2.48 2.59 2.65 2.74 2.68 2.64 2.65
1.43 1.60 1.87 2.11 1.94 2.00 1.82 1.53 1.62 1.75 1.61 1.61 1.57 1.48 1.33 1.23 1.16 1.16 1.14 1.12 1.12 1.24 1.27 1.27 1.26 1.33 1.52 1.71 1.91 2.02 2.14 2.27 2.40 2.42 2.35 2.42 2.47 2.47 2.47 2.45 2.34 2.34 2.30 2.25

GEFSCGP_prec_meanprecacc_282.txt.gz
Total_Precipitation_Accumulation
0.01 0.02 0.05 0.05 0.06 0.06 0.09 0.11 0.16 0.20 0.17 0.21 0.37 0.56 0.61 0.78 1.08 1.40 1.74 1.98 2.32 2.66 3.03 3.47 3.55 3.81 4.13 4.73 5.19 5.44 5.46 5.28 5.00 4.62 4.25 4.07 4.00 3.97 3.82 3.66 3.46 3.32 3.23 3.30
0.01 0.03 0.03 0.04 0.06 0.07 0.09 0.12 0.17 0.19 0.17 0.20 0.40 0.59 0.69 1.03 1.35 1.41 1.58 1.72 1.91 2.35 2.69 3.04 3.23 3.33 3.75 4.34 4.78 4.95 4.71 4.61 4.45 4.21 4.11 4.07 4.27 4.00 3.79 3.68 3.49 3.19 3.13 3.23
0.04 0.04 0.02 0.03 0.04 0.06 0.08 0.09 0.14 0.20 0.20 0.27 0.41 0.77 0.97 1.19 1.33 1.35 1.45 1.60 1.71 1.99 2.31 2.63 2.79 2.94 3.18 3.31 3.58 3.75 3.91 3.85 3.74 3.73 3.70 3.73 3.97 3.81 3.67 3.57 3.47 3.08 2.88 2.85
0.04 0.03 0.03 0.05 0.05 0.06 0.09 0.09 0.09 0.14 0.21 0.35 0.49 1.06 1.31 1.26 1.31 1.43 1.43 1.41 1.65 1.94 1.94 2.06 2.31 2.48 2.77 2.96 3.16 3.21 3.23 3.35 3.38 3.46 3.37 3.20 3.15 3.15 3.15 3.22 3.15 3.06 2.87 2.75
0.05 0.04 0.04 0.06 0.06 0.05 0.07 0.07 0.09 0.17 0.27 0.38 0.49 0.81 1.23 1.56 1.62 1.43 1.36 1.25 1.45 1.59 1.50 1.49 1.69 1.84 2.12 2.37 2.61 2.73 2.82 2.91 3.06 3.12 3.06 3.03 2.87 2.90 2.97 3.03 3.03 2.97 2.89 2.83
0.05 0.05 0.05 0.05 0.05 0.05 0.06 0.09 0.16 0.30 0.49 0.73 0.61 0.74 1.16 1.52 1.78 1.52 1.30 1.20 1.30 1.28 1.25 1.37 1.52 1.63 1.80 2.10 2.30 2.40 2.52 2.57 2.69 2.75 2.82 2.86 2.84 2.81 2.81 2.84 2.84 2.82 2.81 2.69
0.12 0.12 0.10 0.06 0.06 0.07 0.07 0.16 0.51 0.88 1.17 1.19 0.79 0.83 1.17 1.17 1.20 1.23 1.19 1.23 1.24 1.18 1.14 1.14 1.23 1.38 1.57 1.82 2.00 2.05 2.14 2.22 2.23 2.28 2.40 2.52 2.58 2.64 2.51 2.46 2.50 2.51 2.33 2.22
0.17 0.25 0.15 0.09 0.09 0.10 0.12 0.17 0.56 0.87 0.91 1.01 0.89 1.15 1.47 1.17 1.07 1.01 1.09 1.19 1.19 1.05 0.98 1.01 1.11 1.17 1.26 1.46 1.69 1.74 1.83 1.93 2.08 2.11 2.17 2.29 2.29 2.31 2.17 2.21 2.24 2.20 1.98 1.90
0.11 0.11 0.08 0.08 0.09 0.12 0.16 0.18 0.25 0.48 0.57 0.76 0.98 1.27 1.43 1.12 1.08 1.19 1.31 1.29 1.24 0.99 0.84 0.86 0.87 0.91 0.93 1.05 1.23 1.36 1.62 1.76 1.87 1.95 2.04 2.05 2.01 2.07 2.01 2.04 2.17 2.11 2.08 1.95
0.07 0.05 0.07 0.07 0.09 0.12 0.16 0.16 0.20 0.39 0.61 0.81 0.93 1.31 1.62 1.57 1.40 1.33 1.39 1.24 0.97 0.80 0.70 0.65 0.66 0.66 0.75 0.87 0.98 1.13 1.33 1.43 1.54 1.73 1.86 1.76 1.95 2.03 2.01 1.99 1.89 1.92 2.00 1.99
0.05 0.04 0.07 0.09 0.12 0.15 0.19 0.22 0.29 0.41 0.45 0.69 1.06 1.28 1.22 1.27 1.20 1.25 1.24 1.06 0.82 0.68 0.62 0.63 0.63 0.66 0.72 0.79 0.94 1.11 1.33 1.46 1.46 1.56 1.69 1.75 1.86 1.98 2.01 1.92 1.81 1.82 1.87 1.92
0.07 0.06 0.10 0.16 0.18 0.17 0.17 0.20 0.28 0.43 0.42 0.46 0.73 0.96 0.70 0.75 0.77 0.85 0.91 0.79 0.72 0.69 0.64 0.71 0.76 0.76 0.78 0.87 1.01 1.17 1.30 1.45 1.51 1.63 1.83 1.98 1.94 1.93 1.96 1.92 1.82 1.71 1.64 1.72
0.11 0.12 0.17 0.38 0.48 0.30 0.19 0.17 0.20 0.25 0.28 0.30 0.54 0.75 0.53 0.61 0.72 0.84 0.93 0.94 0.89 0.80 0.66 0.70 0.89 0.96 0.90 0.97 1.14 1.34 1.46 1.53 1.61 1.76 2.03 2.18 2.06 1.95 1.99 1.92 1.74 1.61 1.52 1.56
0.12 0.15 0.19 0.41 0.52 0.41 0.30 0.24 0.20 0.23 0.31 0.29 0.32 0.50 0.52 0.60 0.74 0.84 0.93 0.97 0.86 0.76 0.70 0.77 0.87 0.93 1.06 1.11 1.24 1.42 1.42 1.51 1.62 1.66 1.86 2.03 1.98 1.83 1.74 1.72 1.67 1.64 1.60 1.54
0.10 0.12 0.13 0.16 0.24 0.31 0.32 0.27 0.21 0.18 0.21 0.34 0.33 0.39 0.49 0.61 0.66 0.83 0.92 0.87 0.81 0.74 0.71 0.78 0.92 0.93 0.93 0.98 1.00 1.09 1.10 1.28 1.28 1.35 1.45 1.54 1.53 1.53 1.51 1.45 1.41 1.46 1.53 1.48
0.19 0.18 0.17 0.15 0.18 0.23 0.26 0.26 0.19 0.14 0.13 0.16 0.28 0.50 0.55 0.58 0.65 0.79 0.80 0.78 0.78 0.85 0.89 0.92 0.98 1.05 0.95 0.90 0.84 0.78 0.85 1.02 1.15 1.27 1.24 1.31 1.40 1.32 1.29 1.31 1.29 1.32 1.41 1.52
0.37 0.33 0.30 0.25 0.21 0.27 0.32 0.27 0.20 0.14 0.13 0.15 0.32 0.60 0.61 0.63 0.70 0.82 0.89 0.89 0.79 0.79 0.85 0.95 1.01 1.02 0.87 0.82 0.80 0.81 0.84 0.92 0.99 1.11 1.26 1.35 1.41 1.36 1.28 1.33 1.43 1.44 1.58 1.62
0.45 0.49 0.42 0.37 0.44 0.58 0.39 0.26 0.22 0.23 0.21 0.22 0.28 0.39 0.47 0.62 0.66 0.68 0.75 0.87 0.89 0.90 0.99 1.02 0.97 0.93 0.90 0.86 0.88 0.89 0.90 0.96 1.07 1.10 1.22 1.32 1.34 1.30 1.30 1.30 1.38 1.50 1.66 1.71
0.35 0.52 0.54 0.51 0.60 0.52 0.43 0.37 0.35 0.39 0.39 0.36 0.45 0.44 0.50 0.57 0.63 0.79 0.69 0.73 0.75 0.92 0.97 1.02 1.02 1.05 1.06 1.01 1.06 1.09 1.04 1.08 1.20 1.30 1.37 1.35 1.38 1.41 1.44 1.46 1.54 1.61 1.65 1.67
0.45 0.58 0.72 0.67 0.81 0.81 0.67 0.57 0.50 0.52 0.86 0.65 0.61 0.62 0.71 0.76 0.88 1.06 0.87 0.77 0.84 0.93 0.91 0.96 0.95 1.02 1.13 1.15 1.26 1.30 1.30 1.31 1.37 1.48 1.58 1.61 1.70 1.76 1.71 1.83 1.96 1.97 1.95 1.90
0.94 0.94 0.86 0.87 0.99 0.99 0.78 0.66 0.62 1.03 1.24 0.81 0.73 0.78 0.77 0.82 0.94 0.97 0.96 0.97 0.95 0.80 0.77 0.83 0.93 0.94 1.04 1.24 1.44 1.57 1.55 1.47 1.55 1.67 1.81 1.97 2.08 2.25 2.40 2.47 2.37 2.28 2.27 2.27
1.11 1.21 1.19 1.22 1.39 1.31 0.84 0.78 1.12 1.35 1.02 1.03 0.93 0.86 0.85 0.81 0.90 0.97 0.97 0.93 0.83 0.82 0.81 0.86 0.99 0.99 1.04 1.22 1.41 1.58 1.59 1.61 1.78 1.94 2.10 2.24 2.43 2.52 2.62 2.96 2.98 2.96 2.90 2.63
1.24 1.30 1.30 1.35 1.45 1.18 1.02 1.18 1.27 1.24 1.21 1.25 1.28 1.10 1.00 0.94 0.96 1.00 0.93 0.85 0.79 0.80 0.80 0.86 1.01 1.12 1.16 1.26 1.49 1.75 1.79 1.84 1.96 2.09 2.28 2.43 2.51 2.66 2.79 2.93 2.93 2.95 2.88 2.62
1.39 1.16 1.31 1.47 1.57 1.35 1.26 1.27 1.31 1.29 1.24 1.26 1.36 1.47 1.45 1.19 1.03 1.05 1.01 0.92 0.91 0.96 0.92 0.93 1.04 1.20 1.37 1.49 1.66 1.92 1.98 2.09 2.16 2.20 2.32 2.42 2.51 2.63 2.80 2.93 2.85 2.79 2.72 2.64
1.40 1.42 1.61 1.87 1.85 1.68 1.53 1.56 1.67 1.57 1.44 1.48 1.49 1.53 1.59 1.29 1.05 1.00 1.07 1.03 1.02 1.12 1.14 1.12 1.16 1.28 1.50 1.67 1.83 1.91 1.96 2.15 2.33 2.33 2.37 2.47 2.49 2.50 2.60 2.67 2.76 2.70 2.66 2.67
1.44 1.60 1.88 2.12 1.95 2.01 1.84 1.54 1.64 1.76 1.62 1.63 1.59 1.50 1.36 1.25 1.18 1.17 1.16 1.14 1.14 1.25 1.28 1.28 1.26 1.34 1.52 1.71 1.91 2.03 2.15 2.28 2.40 2.43 2.37 2.43 2.48 2.48 2.48 2.47 2.35 2.35 2.32 2.28

GEFSCGP_prec_meanprecacc_288.txt.gz
Total_Precipitation_Accumulation
0.01 0.02 0.05 0.05 0.06 0.06 0.09 0.11 0.16 0.20 0.17 0.21 0.37 0.56 0.61 0.78 1.08 1.40 1.74 1.98 2.32 2.66 3.03 3.47 3.55 3.81 4.14 4.74 5.22 5.45 5.48 5.32 5.06 4.69 4.28 4.10 4.04 4.00 3.84 3.68 3.47 3.34 3.27 3.34
0.01 0.04 0.03 0.04 0.06 0.07 0.09 0.12 0.17 0.19 0.17 0.20 0.40 0.59 0.69 1.03 1.35 1.41 1.58 1.72 1.91 2.35 2.70 3.04 3.24 3.33 3.76 4.35 4.80 4.97 4.73 4.63 4.48 4.25 4.14 4.11 4.31 4.03 3.82 3.69 3.50 3.21 3.15 3.26
0.04 0.04 0.02 0.03 0.04 0.06 0.08 0.09 0.14 0.20 0.20 0.27 0.41 0.77 0.97 1.19 1.33 1.35 1.45 1.60 1.71 1.99 2.31 2.64 2.79 2.94 3.19 3.32 3.60 3.80 3.94 3.87 3.77 3.75 3.73 3.76 4.00 3.83 3.69 3.59 3.48 3.09 2.89 2.86
0.04 0.03 0.03 0.05 0.05 0.06 0.09 0.09 0.09 0.14 0.22 0.36 0.50 1.07 1.32 1.27 1.31 1.43 1.43 1.41 1.65 1.95 1.94 2.06 2.31 2.48 2.77 2.96 3.16 3.24 3.27 3.37 3.39 3.47 3.38 3.22 3.17 3.17 3.17 3.24 3.17 3.08 2.88 2.76
0.05 0.04 0.04 0.06 0.06 0.05 0.07 0.07 0.09 0.17 0.27 0.38 0.49 0.82 1.23 1.56 1.62 1.43 1.36 1.25 1.45 1.59 1.50 1.49 1.69 1.84 2.12 2.37 2.61 2.74 2.84 2.94 3.08 3.14 3.09 3.06 2.88 2.91 2.99 3.05 3.05 2.99 2.92 2.85
0.05 0.05 0.05 0.05 0.05 0.05 0.06 0.09 0.16 0.30 0.49 0.73 0.62 0.74 1.16 1.52 1.78 1.52 1.30 1.20 1.30 1.28 1.25 1.37 1.52 1.63 1.80 2.10 2.30 2.40 2.52 2.57 2.69 2.75 2.85 2.91 2.88 2.84 2.84 2.86 2.86 2.84 2.84 2.72
0.12 0.12 0.10 0.06 0.06 0.07 0.07 0.16 0.51 0.89 1.18 1.19 0.79 0.83 1.17 1.17 1.21 1.23 1.19 1.23 1.24 1.18 1.14 1.14 1.23 1.38 1.58 1.82 2.00 2.05 2.15 2.23 2.23 2.28 2.43 2.57 2.63 2.68 2.55 2.50 2.53 2.54 2.38 2.27
0.17 0.25 0.15 0.09 0.09 0.10 0.12 0.17 0.56 0.88 0.92 1.01 0.89 1.15 1.47 1.17 1.08 1.01 1.09 1.19 1.19 1.05 0.98 1.01 1.11 1.17 1.26 1.46 1.69 1.74 1.83 1.94 2.09 2.12 2.18 2.31 2.32 2.33 2.21 2.29 2.30 2.25 2.04 1.96
0.11 0.11 0.08 0.08 0.09 0.12 0.16 0.18 0.25 0.48 0.57 0.76 0.99 1.27 1.44 1.12 1.09 1.19 1.31 1.29 1.24 0.99 0.84 0.86 0.87 0.91 0.94 1.05 1.23 1.36 1.62 1.77 1.87 1.96 2.05 2.06 2.03 2.09 2.04 2.11 2.27 2.17 2.14 2.00
0.07 0.05 0.07 0.07 0.09 0.12 0.16 0.16 0.20 0.39 0.61 0.81 0.94 1.31 1.62 1.57 1.40 1.34 1.40 1.24 0.97 0.80 0.70 0.65 0.66 0.66 0.75 0.87 0.98 1.14 1.34 1.44 1.55 1.74 1.87 1.77 1.96 2.04 2.03 2.03 1.96 2.00 2.08 2.06
0.05 0.04 0.07 0.09 0.12 0.15 0.19 0.22 0.29 0.41 0.45 0.69 1.06 1.28 1.23 1.28 1.21 1.25 1.24 1.06 0.82 0.68 0.62 0.63 0.63 0.66 0.72 0.79 0.94 1.12 1.33 1.48 1.48 1.58 1.71 1.76 1.86 1.99 2.02 1.94 1.84 1.88 1.95 2.00
0.07 0.06 0.10 0.16 0.18 0.17 0.17 0.20 0.28 0.43 0.42 0.46 0.73 0.96 0.70 0.75 0.77 0.85 0.91 0.79 0.72 0.69 0.64 0.71 0.76 0.77 0.78 0.87 1.02 1.18 1.31 1.47 1.54 1.66 1.85 1.99 1.95 1.94 1.98 1.94 1.84 1.75 1.70 1.78
0.11 0.12 0.17 0.38 0.48 0.30 0.19 0.17 0.20 0.25 0.28 0.30 0.54 0.75 0.53 0.61 0.72 0.84 0.93 0.94 0.89 0.81 0.66 0.70 0.89 0.97 0.90 0.98 1.16 1.37 1.48 1.56 1.64 1.79 2.05 2.20 2.07 1.97 2.01 1.94 1.75 1.63 1.55 1.60
0.12 0.15 0.19 0.41 0.52 0.41 0.30 0.24 0.20 0.23 0.31 0.29 0.32 0.50 0.53 0.60 0.74 0.84 0.93 0.97 0.86 0.76 0.70 0.77 0.87 0.93 1.07 1.13 1.26 1.44 1.43 1.52 1.64 1.68 1.88 2.06 2.00 1.85 1.75 1.73 1.68 1.66 1.63 1.57
0.10 0.13 0.13 0.16 0.24 0.31 0.32 0.27 0.21 0.18 0.21 0.34 0.33 0.39 0.49 0.61 0.66 0.83 0.92 0.87 0.81 0.74 0.71 0.78 0.92 0.94 0.94 0.99 1.01 1.09 1.11 1.30 1.31 1.37 1.47 1.56 1.55 1.55 1.52 1.46 1.42 1.47 1.55 1.52
0.19 0.18 0.17 0.16 0.18 0.23 0.26 0.26 0.19 0.14 0.13 0.16 0.28 0.50 0.55 0.58 0.65 0.79 0.80 0.78 0.78 0.85 0.90 0.93 0.98 1.06 0.96 0.91 0.85 0.79 0.87 1.04 1.18 1.31 1.27 1.33 1.42 1.34 1.31 1.32 1.29 1.33 1.43 1.55
0.37 0.33 0.30 0.25 0.21 0.27 0.32 0.27 0.20 0.14 0.13 0.15 0.32 0.60 0.61 0.63 0.70 0.83 0.89 0.89 0.79 0.80 0.86 0.96 1.02 1.02 0.87 0.82 0.80 0.82 0.84 0.93 1.01 1.12 1.28 1.38 1.43 1.38 1.31 1.35 1.45 1.46 1.59 1.65
0.45 0.50 0.42 0.37 0.44 0.58 0.39 0.26 0.22 0.23 0.21 0.22 0.28 0.39 0.48 0.63 0.66 0.68 0.75 0.87 0.89 0.91 0.99 1.02 0.97 0.94 0.90 0.87 0.88 0.89 0.90 0.97 1.08 1.11 1.23 1.34 1.36 1.33 1.34 1.33 1.40 1.52 1.69 1.74
0.35 0.52 0.54 0.51 0.60 0.52 0.43 0.37 0.35 0.39 0.39 0.36 0.45 0.44 0.50 0.57 0.63 0.79 0.69 0.73 0.75 0.92 0.98 1.02 1.03 1.05 1.06 1.01 1.07 1.09 1.05 1.09 1.21 1.31 1.37 1.35 1.40 1.44 1.47 1.50 1.56 1.63 1.67 1.68
0.45 0.58 0.72 0.67 0.81 0.81 0.67 0.57 0.50 0.52 0.86 0.65 0.61 0.62 0.71 0.76 0.88 1.07 0.87 0.77 0.84 0.93 0.91 0.96 0.96 1.03 1.14 1.15 1.27 1.31 1.31 1.32 1.38 1.48 1.58 1.62 1.71 1.77 1.74 1.85 1.98 1.99 1.97 1.92
0.94 0.94 0.87 0.87 0.99 0.99 0.78 0.66 0.62 1.03 1.24 0.81 0.73 0.78 0.77 0.82 0.94 0.97 0.97 0.97 0.96 0.80 0.77 0.83 0.94 0.94 1.04 1.24 1.44 1.58 1.55 1.47 1.55 1.67 1.82 1.98 2.08 2.25 2.40 2.49 2.38 2.29 2.28 2.28
1.11 1.21 1.19 1.22 1.39 1.31 0.84 0.78 1.12 1.35 1.02 1.03 0.93 0.86 0.86 0.81 0.91 0.98 0.97 0.93 0.84 0.83 0.81 0.87 0.99 0.99 1.04 1.22 1.41 1.58 1.59 1.61 1.78 1.94 2.11 2.24 2.44 2.54 2.63 2.97 2.99 2.97 2.91 2.64
1.24 1.30 1.30 1.35 1.45 1.18 1.02 1.18 1.27 1.24 1.21 1.25 1.28 1.10 1.00 0.94 0.96 1.00 0.93 0.85 0.79 0.80 0.81 0.86 1.02 1.13 1.17 1.26 1.49 1.75 1.79 1.85 1.97 2.10 2.31 2.47 2.54 2.67 2.80 2.94 2.94 2.95 2.88 2.63
1.39 1.16 1.31 1.48 1.57 1.35 1.27 1.27 1.31 1.29 1.24 1.26 1.36 1.48 1.45 1.19 1.03 1.05 1.01 0.92 0.91 0.96 0.92 0.94 1.05 1.21 1.38 1.49 1.66 1.92 1.98 2.10 2.17 2.22 2.35 2.44 2.53 2.64 2.81 2.94 2.86 2.80 2.73 2.65
1.41 1.42 1.62 1.88 1.85 1.68 1.53 1.56 1.67 1.57 1.44 1.48 1.50 1.54 1.60 1.29 1.06 1.00 1.07 1.03 1.03 1.12 1.15 1.13 1.18 1.30 1.51 1.68 1.84 1.92 1.97 2.16 2.34 2.34 2.39 2.49 2.50 2.52 2.62 2.69 2.77 2.71 2.66 2.68
1.44 1.61 1.88 2.12 1.95 2.01 1.84 1.55 1.64 1.77 1.63 1.64 1.59 1.51 1.37 1.26 1.19 1.18 1.17 1.15 1.15 1.27 1.31 1.30 1.28 1.35 1.53 1.72 1.91 2.03 2.15 2.29 2.41 2.44 2.38 2.45 2.50 2.50 2.50 2.49 2.38 2.38 2.34 2.30

GEFSCGP_prec_meanprecacc_294.txt.gz
Total_Precipitation_Accumulation
0.01 0.02 0.05 0.06 0.07 0.06 0.09 0.12 0.17 0.20 0.17 0.21 0.37 0.56 0.61 0.80 1.09 1.40 1.74 1.98 2.32 2.66 3.03 3.47 3.55 3.81 4.14 4.75 5.23 5.47 5.51 5.37 5.12 4.83 4.46 4.22 4.13 4.08 3.91 3.73 3.54 3.42 3.34 3.40
0.01 0.04 0.03 0.04 0.06 0.07 0.10 0.13 0.17 0.20 0.17 0.20 0.40 0.60 0.69 1.03 1.36 1.41 1.58 1.72 1.91 2.35 2.70 3.04 3.24 3.33 3.76 4.35 4.81 4.99 4.76 4.67 4.53 4.34 4.26 4.21 4.39 4.09 3.86 3.73 3.56 3.27 3.22 3.32
0.04 0.04 0.02 0.03 0.04 0.06 0.09 0.10 0.14 0.20 0.20 0.27 0.42 0.78 0.97 1.19 1.33 1.35 1.45 1.60 1.71 1.99 2.31 2.64 2.79 2.94 3.19 3.32 3.60 3.80 3.96 3.89 3.81 3.81 3.79 3.83 4.08 3.91 3.76 3.64 3.54 3.15 2.95 2.92
0.04 0.03 0.03 0.05 0.06 0.06 0.09 0.09 0.09 0.14 0.22 0.36 0.50 1.08 1.33 1.28 1.32 1.44 1.43 1.41 1.65 1.95 1.94 2.06 2.31 2.48 2.77 2.96 3.16 3.24 3.28 3.39 3.41 3.50 3.42 3.27 3.23 3.23 3.21 3.28 3.21 3.13 2.94 2.81
0.05 0.04 0.04 0.06 0.06 0.06 0.07 0.07 0.09 0.17 0.27 0.38 0.49 0.82 1.24 1.57 1.63 1.43 1.36 1.25 1.45 1.59 1.50 1.49 1.69 1.84 2.12 2.37 2.61 2.74 2.84 2.95 3.10 3.16 3.13 3.11 2.94 2.96 3.03 3.10 3.10 3.04 2.96 2.89
0.05 0.05 0.05 0.05 0.05 0.05 0.06 0.10 0.17 0.31 0.49 0.74 0.62 0.75 1.17 1.52 1.78 1.52 1.30 1.20 1.30 1.28 1.25 1.37 1.52 1.63 1.80 2.10 2.30 2.40 2.53 2.58 2.71 2.77 2.87 2.96 2.95 2.90 2.90 2.92 2.91 2.89 2.88 2.76
0.12 0.12 0.10 0.06 0.06 0.07 0.07 0.17 0.54 0.92 1.19 1.22 0.80 0.83 1.17 1.17 1.21 1.24 1.20 1.23 1.24 1.18 1.14 1.14 1.23 1.38 1.58 1.82 2.00 2.05 2.15 2.23 2.24 2.29 2.45 2.60 2.67 2.73 2.61 2.55 2.57 2.58 2.41 2.30
0.17 0.25 0.15 0.09 0.09 0.10 0.12 0.18 0.60 0.93 0.96 1.03 0.89 1.15 1.48 1.17 1.08 1.02 1.10 1.20 1.19 1.05 0.98 1.01 1.11 1.17 1.26 1.46 1.69 1.74 1.83 1.94 2.10 2.13 2.21 2.34 2.36 2.37 2.25 2.34 2.33 2.28 2.06 1.99
0.11 0.11 0.08 0.08 0.09 0.12 0.17 0.19 0.26 0.49 0.58 0.77 0.99 1.28 1.44 1.13 1.09 1.20 1.32 1.30 1.24 0.99 0.84 0.86 0.87 0.91 0.94 1.06 1.23 1.36 1.62 1.77 1.88 1.97 2.07 2.09 2.07 2.13 2.09 2.16 2.30 2.19 2.17 2.03
0.07 0.05 0.07 0.07 0.09 0.12 0.16 0.16 0.20 0.39 0.62 0.83 0.95 1.32 1.63 1.57 1.41 1.34 1.40 1.24 0.97 0.80 0.70 0.65 0.66 0.66 0.75 0.87 0.98 1.14 1.34 1.44 1.56 1.76 1.88 1.80 1.99 2.07 2.06 2.06 2.00 2.03 2.11 2.09
0.05 0.04 0.07 0.09 0.12 0.15 0.19 0.22 0.29 0.42 0.47 0.70 1.08 1.30 1.24 1.28 1.21 1.25 1.24 1.07 0.84 0.68 0.62 0.63 0.63 0.66 0.72 0.79 0.94 1.12 1.33 1.48 1.49 1.59 1.72 1.77 1.87 2.00 2.04 1.96 1.87 1.91 1.98 2.03
0.07 0.06 0.10 0.17 0.18 0.17 0.17 0.20 0.29 0.43 0.43 0.47 0.77 1.02 0.71 0.75 0.77 0.85 0.91 0.79 0.73 0.69 0.64 0.71 0.76 0.77 0.78 0.87 1.02 1.18 1.31 1.47 1.54 1.66 1.86 2.00 1.96 1.95 1.99 1.95 1.85 1.76 1.72 1.80
0.11 0.12 0.17 0.38 0.48 0.30 0.19 0.17 0.20 0.25 0.28 0.31 0.56 0.79 0.54 0.61 0.72 0.84 0.93 0.94 0.89 0.81 0.66 0.70 0.89 0.97 0.91 0.98 1.16 1.37 1.48 1.56 1.65 1.80 2.06 2.21 2.08 1.98 2.02 1.94 1.76 1.65 1.58 1.64
0.12 0.16 0.20 0.41 0.52 0.41 0.30 0.24 0.20 0.23 0.31 0.29 0.32 0.51 0.53 0.60 0.75 0.84 0.93 0.97 0.86 0.76 0.70 0.77 0.87 0.93 1.07 1.13 1.26 1.44 1.44 1.53 1.66 1.70 1.90 2.07 2.01 1.87 1.76 1.73 1.68 1.67 1.64 1.59
0.10 0.13 0.14 0.17 0.24 0.31 0.32 0.27 0.22 0.18 0.21 0.34 0.34 0.40 0.50 0.61 0.67 0.84 0.92 0.87 0.81 0.74 0.71 0.78 0.92 0.94 0.94 1.00 1.01 1.10 1.12 1.31 1.33 1.39 1.49 1.58 1.56 1.57 1.54 1.47 1.43 1.48 1.56 1.53
0.19 0.18 0.17 0.16 0.18 0.23 0.26 0.26 0.19 0.14 0.13 0.16 0.29 0.52 0.55 0.59 0.65 0.79 0.80 0.78 0.79 0.86 0.90 0.93 0.98 1.06 0.96 0.91 0.85 0.80 0.87 1.05 1.19 1.32 1.29 1.35 1.43 1.36 1.32 1.34 1.32 1.36 1.45 1.56
0.37 0.33 0.30 0.26 0.22 0.27 0.32 0.27 0.20 0.14 0.13 0.15 0.32 0.60 0.61 0.63 0.70 0.83 0.89 0.89 0.79 0.80 0.86 0.97 1.03 1.03 0.87 0.82 0.80 0.82 0.84 0.94 1.03 1.14 1.30 1.40 1.45 1.39 1.33 1.36 1.47 1.48 1.61 1.67
0.45 0.50 0.42 0.37 0.45 0.58 0.39 0.26 0.22 0.23 0.21 0.22 0.28 0.39 0.48 0.63 0.66 0.69 0.76 0.87 0.89 0.91 0.99 1.04 1.01 0.96 0.91 0.87 0.88 0.90 0.90 0.97 1.09 1.13 1.25 1.37 1.39 1.35 1.35 1.35 1.42 1.54 1.71 1.77
0.35 0.53 0.54 0.51 0.60 0.52 0.44 0.37 0.35 0.39 0.40 0.36 0.45 0.44 0.50 0.57 0.64 0.80 0.70 0.73 0.75 0.92 0.98 1.03 1.05 1.07 1.06 1.01 1.07 1.10 1.05 1.10 1.22 1.33 1.41 1.38 1.43 1.47 1.50 1.52 1.59 1.66 1.70 1.71
0.45 0.58 0.73 0.67 0.81 0.81 0.67 0.57 0.50 0.52 0.86 0.65 0.61 0.62 0.71 0.77 0.89 1.07 0.88 0.78 0.85 0.94 0.91 0.96 0.96 1.03 1.14 1.15 1.27 1.31 1.32 1.32 1.40 1.51 1.61 1.64 1.72 1.79 1.76 1.88 2.01 2.02 2.00 1.95
0.94 0.94 0.87 0.87 0.99 0.99 0.78 0.66 0.62 1.04 1.25 0.82 0.73 0.78 0.77 0.82 0.95 0.97 0.97 0.98 0.96 0.80 0.77 0.83 0.94 0.94 1.05 1.24 1.44 1.59 1.56 1.49 1.58 1.71 1.86 2.00 2.10 2.27 2.43 2.51 2.41 2.32 2.32 2.32
1.12 1.21 1.20 1.22 1.40 1.32 0.84 0.79 1.13 1.36 1.02 1.04 0.93 0.86 0.86 0.81 0.91 0.98 0.98 0.94 0.84 0.83 0.81 0.87 0.99 1.00 1.05 1.23 1.42 1.60 1.62 1.64 1.81 1.98 2.16 2.29 2.48 2.57 2.68 3.02 3.05 3.03 2.95 2.68
1.25 1.31 1.31 1.36 1.46 1.20 1.02 1.18 1.27 1.24 1.21 1.25 1.28 1.10 1.01 0.94 0.96 1.00 0.94 0.85 0.79 0.80 0.81 0.86 1.02 1.14 1.18 1.28 1.51 1.79 1.83 1.88 2.02 2.16 2.36 2.51 2.58 2.71 2.84 2.97 2.97 2.98 2.91 2.65
1.40 1.17 1.33 1.50 1.59 1.38 1.29 1.29 1.32 1.29 1.24 1.27 1.36 1.48 1.45 1.20 1.04 1.05 1.02 0.92 0.91 0.97 0.93 0.95 1.07 1.23 1.40 1.52 1.70 1.96 2.01 2.13 2.21 2.28 2.39 2.47 2.55 2.66 2.83 2.96 2.88 2.81 2.75 2.67
1.42 1.43 1.63 1.91 1.89 1.71 1.55 1.57 1.68 1.57 1.44 1.48 1.50 1.54 1.60 1.30 1.06 1.00 1.07 1.05 1.04 1.14 1.17 1.15 1.20 1.32 1.54 1.70 1.87 1.94 1.99 2.19 2.38 2.38 2.42 2.51 2.52 2.53 2.64 2.71 2.79 2.73 2.68 2.70
1.45 1.62 1.91 2.15 1.97 2.04 1.87 1.56 1.65 1.77 1.63 1.64 1.60 1.51 1.37 1.26 1.19 1.18 1.18 1.17 1.17 1.29 1.33 1.32 1.30 1.38 1.57 1.75 1.94 2.05 2.17 2.30 2.44 2.48 2.41 2.46 2.51 2.51 2.51 2.50 2.39 2.40 2.36 2.32

GEFSCGP_prec_meanprecacc_300.txt.gz
Total_Precipitation_Accumulation
0.01 0.03 0.06 0.07 0.08 0.08 0.12 0.14 0.18 0.21 0.18 0.22 0.38 0.57 0.62 0.80 1.09 1.40 1.75 1.98 2.32 2.66 3.03 3.47 3.56 3.82 4.14 4.75 5.23 5.48 5.52 5.39 5.15 4.86 4.52 4.32 4.25 4.18 4.00 3.79 3.62 3.50 3.40 3.46
0.02 0.04 0.04 0.05 0.08 0.08 0.11 0.14 0.18 0.21 0.19 0.21 0.40 0.60 0.70 1.04 1.36 1.42 1.59 1.72 1.91 2.35 2.70 3.04 3.24 3.33 3.76 4.35 4.81 5.00 4.76 4.68 4.54 4.35 4.30 4.29 4.49 4.19 3.95 3.79 3.62 3.35 3.31 3.40
0.04 0.05 0.03 0.03 0.05 0.07 0.10 0.11 0.15 0.22 0.22 0.28 0.43 0.79 0.99 1.20 1.34 1.37 1.46 1.60 1.71 1.99 2.31 2.64 2.79 2.95 3.19 3.32 3.60 3.81 3.96 3.89 3.82 3.82 3.82 3.89 4.15 3.98 3.83 3.70 3.59 3.20 3.02 3.00
0.04 0.04 0.05 0.05 0.06 0.08 0.10 0.10 0.10 0.15 0.23 0.37 0.51 1.10 1.34 1.29 1.34 1.46 1.44 1.41 1.65 1.95 1.94 2.06 2.31 2.48 2.77 2.96 3.16 3.24 3.29 3.39 3.42 3.50 3.43 3.29 3.25 3.26 3.25 3.32 3.25 3.19 2.99 2.88
0.05 0.05 0.05 0.07 0.07 0.07 0.08 0.08 0.09 0.19 0.29 0.40 0.51 0.85 1.25 1.57 1.64 1.44 1.37 1.25 1.45 1.59 1.50 1.50 1.69 1.84 2.12 2.37 2.61 2.74 2.85 2.96 3.11 3.17 3.14 3.13 2.95 2.97 3.05 3.12 3.12 3.07 2.99 2.92
0.05 0.06 0.05 0.05 0.05 0.06 0.06 0.10 0.17 0.32 0.51 0.76 0.64 0.78 1.20 1.52 1.78 1.52 1.30 1.21 1.31 1.28 1.25 1.37 1.53 1.64 1.80 2.11 2.30 2.41 2.54 2.60 2.72 2.78 2.89 3.02 3.00 2.92 2.91 2.93 2.92 2.90 2.90 2.79
0.12 0.12 0.10 0.06 0.06 0.07 0.08 0.17 0.56 0.94 1.21 1.24 0.81 0.84 1.19 1.18 1.21 1.24 1.20 1.24 1.25 1.19 1.15 1.15 1.24 1.39 1.58 1.82 2.01 2.06 2.16 2.24 2.25 2.30 2.48 2.66 2.70 2.74 2.62 2.56 2.58 2.59 2.42 2.32
0.17 0.25 0.15 0.09 0.09 0.10 0.13 0.19 0.62 0.96 1.00 1.05 0.90 1.16 1.49 1.18 1.09 1.02 1.10 1.20 1.20 1.06 1.00 1.03 1.13 1.18 1.27 1.47 1.69 1.74 1.83 1.94 2.10 2.14 2.23 2.36 2.38 2.39 2.27 2.35 2.35 2.29 2.07 2.00
0.11 0.11 0.08 0.08 0.09 0.13 0.19 0.20 0.28 0.53 0.64 0.81 1.01 1.29 1.46 1.14 1.10 1.21 1.32 1.30 1.25 1.00 0.86 0.89 0.89 0.93 0.95 1.07 1.24 1.36 1.62 1.77 1.88 1.98 2.08 2.10 2.08 2.14 2.10 2.17 2.31 2.20 2.18 2.04
0.07 0.06 0.07 0.08 0.09 0.13 0.17 0.17 0.23 0.46 0.70 0.87 0.98 1.34 1.64 1.59 1.43 1.35 1.41 1.25 0.98 0.81 0.71 0.68 0.68 0.68 0.77 0.89 1.00 1.15 1.35 1.45 1.56 1.76 1.89 1.81 2.00 2.08 2.07 2.07 2.01 2.04 2.13 2.11
0.06 0.05 0.07 0.10 0.12 0.15 0.20 0.23 0.31 0.45 0.49 0.72 1.11 1.34 1.26 1.31 1.23 1.27 1.25 1.08 0.85 0.69 0.63 0.66 0.66 0.68 0.75 0.82 0.97 1.14 1.35 1.50 1.50 1.60 1.73 1.78 1.88 2.01 2.04 1.97 1.88 1.92 2.00 2.04
0.07 0.07 0.11 0.17 0.18 0.17 0.18 0.21 0.31 0.45 0.44 0.49 0.79 1.05 0.74 0.78 0.80 0.87 0.93 0.80 0.73 0.70 0.66 0.73 0.78 0.78 0.80 0.89 1.03 1.21 1.35 1.51 1.57 1.68 1.87 2.00 1.96 1.96 2.00 1.96 1.86 1.78 1.74 1.82
0.12 0.12 0.18 0.38 0.49 0.30 0.20 0.19 0.22 0.27 0.29 0.32 0.58 0.82 0.56 0.63 0.74 0.86 0.95 0.95 0.90 0.81 0.67 0.72 0.91 0.98 0.92 1.00 1.18 1.39 1.53 1.63 1.71 1.84 2.09 2.22 2.08 1.98 2.02 1.95 1.77 1.66 1.59 1.66
0.12 0.16 0.20 0.42 0.53 0.41 0.31 0.24 0.20 0.24 0.32 0.30 0.33 0.52 0.55 0.65 0.80 0.89 0.96 0.98 0.87 0.77 0.71 0.78 0.89 0.95 1.09 1.16 1.28 1.46 1.47 1.62 1.73 1.76 1.95 2.10 2.03 1.88 1.77 1.74 1.70 1.69 1.66 1.60
0.10 0.13 0.14 0.17 0.25 0.31 0.33 0.27 0.22 0.19 0.22 0.35 0.34 0.40 0.53 0.69 0.71 0.88 0.95 0.89 0.83 0.76 0.72 0.79 0.94 0.95 0.96 1.03 1.04 1.12 1.14 1.36 1.39 1.46 1.55 1.64 1.59 1.59 1.54 1.48 1.44 1.50 1.57 1.54
0.19 0.19 0.17 0.16 0.19 0.23 0.26 0.26 0.19 0.14 0.13 0.16 0.29 0.53 0.56 0.61 0.67 0.81 0.82 0.80 0.80 0.87 0.91 0.94 0.99 1.07 0.98 0.93 0.87 0.81 0.90 1.10 1.25 1.37 1.32 1.37 1.45 1.37 1.33 1.35 1.33 1.38 1.47 1.58
0.38 0.33 0.30 0.26 0.22 0.27 0.32 0.27 0.20 0.14 0.13 0.15 0.32 0.60 0.61 0.64 0.71 0.84 0.91 0.92 0.81 0.81 0.87 0.98 1.05 1.05 0.90 0.86 0.83 0.85 0.89 0.99 1.09 1.19 1.33 1.43 1.47 1.41 1.34 1.38 1.49 1.50 1.63 1.69
0.45 0.50 0.42 0.37 0.45 0.59 0.40 0.26 0.22 0.23 0.21 0.22 0.29 0.39 0.48 0.63 0.67 0.69 0.76 0.89 0.91 0.92 1.00 1.06 1.03 0.98 0.94 0.90 0.94 0.98 0.96 1.04 1.15 1.19 1.31 1.42 1.44 1.39 1.38 1.37 1.45 1.57 1.74 1.79
0.36 0.53 0.55 0.52 0.61 0.53 0.44 0.38 0.35 0.39 0.40 0.37 0.46 0.45 0.51 0.58 0.65 0.81 0.70 0.74 0.77 0.93 0.99 1.04 1.06 1.08 1.09 1.04 1.11 1.14 1.10 1.14 1.26 1.37 1.45 1.41 1.45 1.51 1.54 1.57 1.62 1.69 1.72 1.74
0.46 0.59 0.73 0.68 0.82 0.82 0.68 0.57 0.51 0.53 0.87 0.66 0.62 0.64 0.72 0.78 0.91 1.10 0.90 0.79 0.86 0.94 0.92 0.97 0.97 1.05 1.15 1.17 1.28 1.33 1.34 1.35 1.41 1.53 1.63 1.66 1.75 1.82 1.79 1.91 2.04 2.05 2.04 1.99
0.95 0.95 0.87 0.88 1.00 1.00 0.78 0.67 0.63 1.05 1.27 0.83 0.74 0.80 0.79 0.84 0.97 1.00 1.00 1.00 0.98 0.81 0.78 0.84 0.94 0.96 1.06 1.26 1.46 1.60 1.58 1.51 1.60 1.73 1.88 2.03 2.13 2.30 2.45 2.53 2.43 2.35 2.35 2.35
1.13 1.22 1.21 1.23 1.41 1.34 0.85 0.80 1.14 1.39 1.06 1.07 0.95 0.89 0.90 0.84 0.93 1.00 1.00 0.95 0.85 0.83 0.82 0.87 1.00 1.00 1.06 1.25 1.45 1.63 1.66 1.68 1.84 2.01 2.19 2.31 2.51 2.60 2.70 3.05 3.08 3.06 2.99 2.71
1.26 1.32 1.32 1.38 1.48 1.22 1.05 1.21 1.30 1.27 1.25 1.30 1.33 1.14 1.04 0.96 0.98 1.02 0.95 0.86 0.80 0.81 0.81 0.87 1.03 1.15 1.19 1.29 1.53 1.80 1.85 1.91 2.04 2.19 2.40 2.55 2.62 2.75 2.88 3.02 3.01 3.02 2.96 2.70
1.42 1.18 1.34 1.51 1.61 1.40 1.33 1.33 1.36 1.33 1.27 1.29 1.39 1.51 1.47 1.22 1.06 1.07 1.03 0.94 0.92 0.97 0.93 0.95 1.07 1.23 1.41 1.53 1.71 1.97 2.02 2.14 2.23 2.29 2.42 2.52 2.63 2.75 2.91 3.02 2.95 2.89 2.83 2.77
1.43 1.44 1.65 1.93 1.91 1.73 1.58 1.60 1.70 1.59 1.45 1.49 1.51 1.55 1.61 1.31 1.08 1.03 1.09 1.06 1.05 1.15 1.17 1.16 1.20 1.33 1.55 1.71 1.88 1.95 2.00 2.20 2.39 2.40 2.45 2.55 2.58 2.61 2.73 2.81 2.90 2.83 2.79 2.81
1.45 1.63 1.93 2.18 1.99 2.05 1.89 1.58 1.66 1.78 1.64 1.65 1.61 1.53 1.39 1.28 1.21 1.22 1.22 1.19 1.19 1.30 1.34 1.33 1.31 1.39 1.57 1.76 1.95 2.06 2.18 2.32 2.46 2.51 2.44 2.50 2.55 2.57 2.59 2.58 2.48 2.49 2.44 2.38